QTR1 RJTT-KEWR

Flight info

Callsign QTR1
Flight time 13h 13m
Altitude 31000
Route INUBO Y808 PUTER DCT SYA/N0476F330 DCT ADK/N0479F350 DCT CDB DCT TED DCT 62N130W/N0477F370 60N108W 58N100W 55N090W 50N081W/N0462F390 DCT YOW DCT HANAA FLOSI4
Aircraft A343/H-SDE2E3FGHIJ4J5M1RWXY/LB1D1

Departure

Time 2026-04-23 01:54
Airport Tokyo Haneda International Airport (RJTT)

Arrival

Time 2026-04-23 15:07
Airport Newark Liberty International Airport (KEWR)
Time Latitude Longitude Altitude Speed Heading
2026-04-23 01:38 35.54706 139.78369 29 ft 0 kts 57°
2026-04-23 01:45 35.54699 139.78356 28 ft 3 kts 60°
2026-04-23 01:45 35.54690 139.78334 28 ft 3 kts 73°
2026-04-23 01:46 35.54687 139.78311 28 ft 3 kts 104°
2026-04-23 01:46 35.54689 139.78298 28 ft 3 kts 176°
2026-04-23 01:46 35.54693 139.78297 28 ft 0 kts 202°
2026-04-23 01:49 35.54685 139.78293 28 ft 5 kts 202°
2026-04-23 01:49 35.54650 139.78275 28 ft 14 kts 206°
2026-04-23 01:50 35.54545 139.78208 27 ft 11 kts 186°
2026-04-23 01:50 35.54499 139.78233 27 ft 0 kts 171°
2026-04-23 01:50 35.54465 139.78252 27 ft 9 kts 153°
2026-04-23 01:50 35.54413 139.78287 27 ft 8 kts 150°
2026-04-23 01:51 35.54356 139.78327 27 ft 13 kts 150°
2026-04-23 01:51 35.54255 139.78399 27 ft 23 kts 150°
2026-04-23 01:51 35.54071 139.78528 27 ft 38 kts 150°
2026-04-23 01:51 35.53901 139.78647 27 ft 47 kts 150°
2026-04-23 01:52 35.53763 139.78715 27 ft 0 kts 201°
2026-04-23 01:52 35.53758 139.78712 27 ft 3 kts 206°
2026-04-23 01:52 35.53730 139.78674 27 ft 9 kts 233°
2026-04-23 01:53 35.53700 139.78596 29 ft 11 kts 254°
2026-04-23 01:53 35.53706 139.78529 29 ft 4 kts 326°
2026-04-23 01:53 35.53801 139.78462 27 ft 39 kts 330°
2026-04-23 01:53 35.54193 139.78185 29 ft 92 kts 330°
2026-04-23 01:54 35.54886 139.77696 29 ft 136 kts 330°
2026-04-23 01:54 35.55800 139.77048 224 ft 156 kts 330°
2026-04-23 01:54 35.56738 139.76417 819 ft 153 kts 333°
2026-04-23 01:54 35.57696 139.75817 1225 ft 154 kts 334°
2026-04-23 01:55 35.58682 139.75198 1264 ft 170 kts 334°
2026-04-23 01:55 35.59805 139.74505 1472 ft 182 kts 335°
2026-04-23 01:55 35.60870 139.73860 2275 ft 169 kts 334°
2026-04-23 01:55 35.61985 139.73188 2608 ft 188 kts 334°
2026-04-23 01:56 35.63275 139.72654 2927 ft 211 kts
2026-04-23 01:56 35.64788 139.73207 3015 ft 247 kts 19°
2026-04-23 01:56 35.66544 139.74038 2980 ft 294 kts 22°
2026-04-23 01:56 35.68573 139.75093 2847 ft 337 kts 23°
2026-04-23 01:57 35.70769 139.76239 3838 ft 325 kts 22°
2026-04-23 01:57 35.72732 139.77264 5950 ft 289 kts 23°
2026-04-23 01:57 35.74675 139.78300 6185 ft 326 kts 23°
2026-04-23 01:57 35.76898 139.79423 6068 ft 363 kts 22°
2026-04-23 01:58 35.79296 139.80630 6621 ft 373 kts 22°
2026-04-23 01:58 35.81704 139.81889 7198 ft 380 kts 22°
2026-04-23 01:58 35.84205 139.82951 7839 ft 385 kts 14°
2026-04-23 01:58 35.86733 139.83700 9244 ft 364 kts 11°
2026-04-23 01:59 35.89101 139.84367 10628 ft 343 kts 11°
2026-04-23 01:59 35.91340 139.85031 11984 ft 320 kts 11°
2026-04-23 01:59 35.93448 139.85721 13030 ft 309 kts 11°
2026-04-23 01:59 35.95483 139.86448 13844 ft 302 kts 11°
2026-04-23 02:00 35.97487 139.87204 14444 ft 300 kts 11°
2026-04-23 02:00 35.99482 139.87955 14968 ft 299 kts 10°
2026-04-23 02:00 36.01490 139.88638 15448 ft 299 kts
2026-04-23 02:00 36.03505 139.89302 15902 ft 301 kts
2026-04-23 02:01 36.05529 139.89975 16357 ft 302 kts
2026-04-23 02:01 36.07578 139.90662 16775 ft 305 kts
2026-04-23 02:01 36.09626 139.91353 17181 ft 307 kts
2026-04-23 02:01 36.11696 139.92054 17561 ft 310 kts
2026-04-23 02:02 36.13784 139.92762 17934 ft 313 kts
2026-04-23 02:02 36.15890 139.93481 18298 ft 315 kts
2026-04-23 02:02 36.17939 139.94464 18559 ft 326 kts 25°
2026-04-23 02:02 36.19719 139.96334 18789 ft 341 kts 51°
2026-04-23 02:03 36.20727 139.99017 18981 ft 349 kts 76°
2026-04-23 02:03 36.21235 140.01930 19258 ft 352 kts 79°
2026-04-23 02:03 36.21688 140.04911 19545 ft 354 kts 79°
2026-04-23 02:03 36.22152 140.07927 19830 ft 357 kts 79°
2026-04-23 02:04 36.22626 140.10962 20126 ft 360 kts 79°
2026-04-23 02:04 36.23110 140.14022 20362 ft 363 kts 79°
2026-04-23 02:04 36.23598 140.17102 20627 ft 365 kts 79°
2026-04-23 02:04 36.24092 140.20201 20904 ft 369 kts 79°
2026-04-23 02:05 36.24469 140.23351 21271 ft 371 kts 90°
2026-04-23 02:05 36.24309 140.26543 21636 ft 369 kts 107°
2026-04-23 02:05 36.23501 140.29518 21911 ft 362 kts 124°
2026-04-23 02:05 36.22120 140.32082 22159 ft 353 kts 140°
2026-04-23 02:06 36.20344 140.34125 22431 ft 346 kts 150°
2026-04-23 02:06 36.18476 140.35934 22728 ft 346 kts 151°
2026-04-23 02:06 36.16564 140.37758 23025 ft 348 kts 151°
2026-04-23 02:06 36.14649 140.39592 23329 ft 349 kts 151°
2026-04-23 02:07 36.12723 140.41444 23595 ft 351 kts 152°
2026-04-23 02:07 36.10791 140.43305 23819 ft 353 kts 152°
2026-04-23 02:07 36.08845 140.45181 24039 ft 355 kts 152°
2026-04-23 02:07 36.06894 140.47064 24260 ft 357 kts 152°
2026-04-23 02:08 36.04934 140.48954 24472 ft 358 kts 152°
2026-04-23 02:08 36.02963 140.50854 24698 ft 360 kts 152°
2026-04-23 02:08 36.00981 140.52763 24907 ft 362 kts 152°
2026-04-23 02:08 35.98988 140.54683 25114 ft 363 kts 152°
2026-04-23 02:09 35.96993 140.56603 25331 ft 365 kts 152°
2026-04-23 02:09 35.94985 140.58534 25555 ft 366 kts 152°
2026-04-23 02:09 35.92970 140.60471 25745 ft 368 kts 152°
2026-04-23 02:09 35.90952 140.62409 25949 ft 369 kts 152°
2026-04-23 02:10 35.88915 140.64365 26152 ft 371 kts 152°
2026-04-23 02:10 35.86875 140.66321 26336 ft 373 kts 152°
2026-04-23 02:10 35.84845 140.68267 26529 ft 374 kts 152°
2026-04-23 02:10 35.82788 140.70238 26738 ft 375 kts 152°
2026-04-23 02:11 35.80726 140.72213 26938 ft 376 kts 152°
2026-04-23 02:11 35.78657 140.74192 27118 ft 377 kts 152°
2026-04-23 02:11 35.76597 140.76219 27322 ft 382 kts 149°
2026-04-23 02:11 35.74659 140.78518 27485 ft 392 kts 141°
2026-04-23 02:12 35.72939 140.81185 27649 ft 403 kts 132°
2026-04-23 02:12 35.71506 140.84188 27816 ft 413 kts 123°
2026-04-23 02:12 35.70363 140.87459 27986 ft 418 kts 118°
2026-04-23 02:12 35.69335 140.90814 28164 ft 421 kts 117°
2026-04-23 02:13 35.68350 140.94212 28343 ft 423 kts 116°
2026-04-23 02:13 35.67377 140.97627 28506 ft 424 kts 116°
2026-04-23 02:13 35.66398 141.01055 28673 ft 426 kts 116°
2026-04-23 02:13 35.65404 141.04497 28837 ft 427 kts 116°
2026-04-23 02:14 35.64395 141.07952 29005 ft 428 kts 117°
2026-04-23 02:14 35.63378 141.11405 29174 ft 430 kts 117°
2026-04-23 02:14 35.61333 141.18299 29472 ft 432 kts 117°
2026-04-23 02:15 35.59265 141.25251 29776 ft 434 kts 117°
2026-04-23 02:15 35.58221 141.28753 29903 ft 436 kts 117°
2026-04-23 02:15 35.57175 141.32257 30043 ft 437 kts 117°
2026-04-23 02:16 35.56128 141.35761 30177 ft 438 kts 117°
2026-04-23 02:16 35.55076 141.39278 30295 ft 440 kts 117°
2026-04-23 02:16 35.54017 141.42817 30410 ft 441 kts 117°
2026-04-23 02:17 35.51895 141.49896 30614 ft 443 kts 117°
2026-04-23 02:17 35.50825 141.53455 30756 ft 444 kts 117°
2026-04-23 02:17 35.49756 141.57010 30866 ft 445 kts 117°
2026-04-23 02:18 35.47603 141.64152 31084 ft 447 kts 117°
2026-04-23 02:18 35.46523 141.67730 31199 ft 448 kts 117°
2026-04-23 02:18 35.45456 141.71284 31305 ft 450 kts 116°
2026-04-23 02:19 35.44234 141.78969 31108 ft 477 kts 97°
2026-04-23 02:19 35.44091 141.83093 30955 ft 487 kts 95°
2026-04-23 02:19 35.44046 141.87274 30943 ft 494 kts 94°
2026-04-23 02:20 35.44047 141.95791 30939 ft 504 kts 93°
2026-04-23 02:20 35.44028 142.04494 30939 ft 515 kts 94°
2026-04-23 02:21 35.43965 142.13353 30944 ft 525 kts 94°
2026-04-23 02:21 35.43879 142.22290 30945 ft 536 kts 94°
2026-04-23 02:22 35.43782 142.31545 30948 ft 546 kts 94°
2026-04-23 02:22 35.43680 142.40882 30946 ft 556 kts 94°
2026-04-23 02:23 35.43568 142.50456 30950 ft 566 kts 94°
2026-04-23 02:23 35.43451 142.60214 30953 ft 576 kts 94°
2026-04-23 02:24 35.43319 142.70095 30947 ft 584 kts 94°
2026-04-23 02:24 35.43176 142.80078 30934 ft 584 kts 94°
2026-04-23 02:25 35.43027 142.90040 30953 ft 584 kts 94°
2026-04-23 02:25 35.42870 143.00007 30961 ft 584 kts 94°
2026-04-23 02:26 35.42705 143.09897 30965 ft 584 kts 94°
2026-04-23 02:26 35.42591 143.19851 30955 ft 585 kts 89°
2026-04-23 02:26 35.43112 143.24807 30956 ft 587 kts 77°
2026-04-23 02:27 35.44372 143.29553 30959 ft 586 kts 64°
2026-04-23 02:27 35.46386 143.33878 30958 ft 581 kts 50°
2026-04-23 02:27 35.49059 143.37551 30954 ft 573 kts 36°
2026-04-23 02:28 35.55542 143.42995 30958 ft 562 kts 25°
2026-04-23 02:28 35.62299 143.47814 30957 ft 561 kts 23°
2026-04-23 02:29 35.69068 143.52585 30959 ft 561 kts 24°
2026-04-23 02:29 35.75816 143.57420 30964 ft 561 kts 24°
2026-04-23 02:30 35.82541 143.62297 30964 ft 561 kts 24°
2026-04-23 02:30 35.89225 143.67160 30964 ft 561 kts 24°
2026-04-23 02:31 35.95959 143.72062 30961 ft 561 kts 24°
2026-04-23 02:31 36.02684 143.76968 30968 ft 561 kts 24°
2026-04-23 02:32 36.09407 143.81882 30963 ft 561 kts 24°
2026-04-23 02:32 36.16128 143.86805 30963 ft 561 kts 24°
2026-04-23 02:33 36.22808 143.91707 30963 ft 561 kts 24°
2026-04-23 02:33 36.29525 143.96652 30969 ft 562 kts 24°
2026-04-23 02:34 36.36243 144.01606 30966 ft 562 kts 24°
2026-04-23 02:34 36.42964 144.06572 30966 ft 562 kts 24°
2026-04-23 02:35 36.49681 144.11547 30966 ft 562 kts 24°
2026-04-23 02:35 36.56410 144.16540 30965 ft 562 kts 24°
2026-04-23 02:36 36.63127 144.21535 30969 ft 562 kts 24°
2026-04-23 02:36 36.69855 144.26548 30972 ft 564 kts 24°
2026-04-23 02:37 36.76580 144.31570 30966 ft 564 kts 24°
2026-04-23 02:37 36.83284 144.36592 30965 ft 566 kts 24°
2026-04-23 02:38 36.90028 144.41661 30965 ft 566 kts 24°
2026-04-23 02:38 36.95679 144.45915 30966 ft 566 kts 24°
2026-04-23 02:39 37.02377 144.50966 30973 ft 566 kts 24°
2026-04-23 02:39 37.09124 144.56065 30978 ft 567 kts 23°
2026-04-23 02:40 37.15881 144.61182 30968 ft 567 kts 23°
2026-04-23 02:40 37.22639 144.66313 30971 ft 567 kts 23°
2026-04-23 02:41 37.29386 144.71445 30969 ft 567 kts 23°
2026-04-23 02:41 37.36139 144.76593 30974 ft 568 kts 23°
2026-04-23 02:42 37.42890 144.81749 30967 ft 568 kts 23°
2026-04-23 02:42 37.49644 144.86920 30969 ft 568 kts 23°
2026-04-23 02:43 37.56391 144.92096 30970 ft 568 kts 23°
2026-04-23 02:43 37.63138 144.97284 30974 ft 568 kts 23°
2026-04-23 02:44 37.69841 145.02448 30980 ft 568 kts 23°
2026-04-23 02:44 37.76593 145.07661 30974 ft 568 kts 23°
2026-04-23 02:45 37.83332 145.12876 30973 ft 568 kts 23°
2026-04-23 02:45 37.90092 145.18117 30971 ft 570 kts 23°
2026-04-23 02:46 37.96871 145.23386 30974 ft 570 kts 23°
2026-04-23 02:46 38.03632 145.28653 30972 ft 571 kts 23°
2026-04-23 02:47 38.10391 145.33930 31008 ft 570 kts 23°
2026-04-23 02:47 38.17162 145.39226 30967 ft 572 kts 23°
2026-04-23 02:48 38.23936 145.44538 30970 ft 572 kts 23°
2026-04-23 02:48 38.30658 145.49836 30971 ft 573 kts 25°
2026-04-23 02:48 38.33876 145.52929 30983 ft 585 kts 34°
2026-04-23 02:49 38.36890 145.56429 30977 ft 587 kts 36°
2026-04-23 02:49 38.42771 145.63689 30970 ft 589 kts 38°
2026-04-23 02:50 38.48580 145.71088 30967 ft 590 kts 38°
2026-04-23 02:50 38.54384 145.78483 30991 ft 589 kts 38°
2026-04-23 02:51 38.60219 145.85889 30974 ft 591 kts 38°
2026-04-23 02:51 38.66050 145.93292 30971 ft 591 kts 38°
2026-04-23 02:52 38.71844 146.00664 31009 ft 591 kts 38°
2026-04-23 02:52 38.77687 146.08118 30982 ft 593 kts 38°
2026-04-23 02:53 38.83525 146.15588 30978 ft 593 kts 38°
2026-04-23 02:53 38.89358 146.23070 30973 ft 593 kts 38°
2026-04-23 02:54 38.95192 146.30570 30971 ft 593 kts 38°
2026-04-23 02:54 39.01017 146.38077 30971 ft 593 kts 38°
2026-04-23 02:55 39.06828 146.45584 30981 ft 596 kts 38°
2026-04-23 02:55 39.12671 146.53151 30975 ft 596 kts 38°
2026-04-23 02:56 39.18514 146.60741 30980 ft 596 kts 38°
2026-04-23 02:56 39.24350 146.68340 30977 ft 596 kts 38°
2026-04-23 02:57 39.30184 146.75954 30977 ft 596 kts 38°
2026-04-23 02:57 39.35970 146.83523 30974 ft 596 kts 38°
2026-04-23 02:58 39.41826 146.91199 30976 ft 600 kts 37°
2026-04-23 02:58 39.47681 146.98901 30977 ft 600 kts 37°
2026-04-23 02:59 39.53529 147.06613 30977 ft 600 kts 37°
2026-04-23 02:59 39.59373 147.14337 30977 ft 600 kts 37°
2026-04-23 03:00 39.65219 147.22084 30978 ft 601 kts 37°
2026-04-23 03:00 39.71029 147.29801 31007 ft 602 kts 37°
2026-04-23 03:01 39.76888 147.37602 30979 ft 602 kts 37°
2026-04-23 03:01 39.82733 147.45412 30973 ft 602 kts 37°
2026-04-23 03:02 39.88575 147.53235 30978 ft 603 kts 37°
2026-04-23 03:02 39.94408 147.61064 30980 ft 603 kts 37°
2026-04-23 03:03 40.00250 147.68926 30981 ft 603 kts 36°
2026-04-23 03:03 40.06092 147.76806 30981 ft 604 kts 36°
2026-04-23 03:04 40.11926 147.84699 30979 ft 604 kts 36°
2026-04-23 03:04 40.17757 147.92611 30990 ft 604 kts 36°
2026-04-23 03:05 40.23555 148.00501 30981 ft 604 kts 36°
2026-04-23 03:05 40.29380 148.08442 30984 ft 604 kts 36°
2026-04-23 03:06 40.35196 148.16394 30991 ft 604 kts 36°
2026-04-23 03:06 40.41015 148.24372 30978 ft 604 kts 36°
2026-04-23 03:07 40.46792 148.32314 30975 ft 604 kts 36°
2026-04-23 03:07 40.52592 148.40308 30989 ft 603 kts 36°
2026-04-23 03:08 40.58374 148.48302 30978 ft 603 kts 36°
2026-04-23 03:08 40.64154 148.56309 30978 ft 603 kts 36°
2026-04-23 03:09 40.69925 148.64329 30974 ft 602 kts 36°
2026-04-23 03:09 40.75684 148.72352 30971 ft 602 kts 36°
2026-04-23 03:10 40.81404 148.80341 30982 ft 602 kts 36°
2026-04-23 03:10 40.87138 148.88375 30972 ft 601 kts 36°
2026-04-23 03:11 40.92877 148.96434 30974 ft 601 kts 36°
2026-04-23 03:11 40.98603 149.04498 30974 ft 601 kts 36°
2026-04-23 03:12 41.04348 149.12606 30979 ft 604 kts 36°
2026-04-23 03:12 41.10089 149.20737 30974 ft 604 kts 36°
2026-04-23 03:13 41.15834 149.28897 30972 ft 604 kts 36°
2026-04-23 03:13 41.21527 149.37005 30972 ft 604 kts 36°
2026-04-23 03:14 41.27254 149.45181 30980 ft 604 kts 36°
2026-04-23 03:14 41.32975 149.53373 30971 ft 604 kts 36°
2026-04-23 03:15 41.38711 149.61603 30968 ft 606 kts 36°
2026-04-23 03:15 41.44437 149.69851 30966 ft 606 kts 36°
2026-04-23 03:16 41.50155 149.78108 30968 ft 606 kts 36°
2026-04-23 03:16 41.58696 149.90483 30966 ft 606 kts 36°
2026-04-23 03:17 41.64400 149.98777 30966 ft 606 kts 36°
2026-04-23 03:17 41.70103 150.07090 30993 ft 607 kts 36°
2026-04-23 03:18 41.75802 150.15424 30966 ft 607 kts 36°
2026-04-23 03:18 41.81502 150.23781 30966 ft 607 kts 36°
2026-04-23 03:19 41.87186 150.32140 30971 ft 607 kts 36°
2026-04-23 03:19 41.92869 150.40520 30964 ft 607 kts 36°
2026-04-23 03:20 41.98543 150.48911 30966 ft 607 kts 36°
2026-04-23 03:20 42.04205 150.57311 30962 ft 605 kts 35°
2026-04-23 03:21 42.09852 150.65711 30967 ft 605 kts 36°
2026-04-23 03:21 42.15463 150.74078 30999 ft 605 kts 35°
2026-04-23 03:22 42.21107 150.82521 30963 ft 605 kts 36°
2026-04-23 03:22 42.26738 150.90969 30963 ft 605 kts 36°
2026-04-23 03:23 42.32363 150.99431 30969 ft 605 kts 36°
2026-04-23 03:23 42.37966 151.07891 30964 ft 603 kts 36°
2026-04-23 03:24 42.43524 151.16302 30963 ft 603 kts 36°
2026-04-23 03:24 42.49108 151.24773 30960 ft 603 kts 36°
2026-04-23 03:25 42.54690 151.33267 30963 ft 603 kts 36°
2026-04-23 03:25 42.60265 151.41777 30963 ft 603 kts 36°
2026-04-23 03:26 42.65828 151.50296 30960 ft 601 kts 37°
2026-04-23 03:26 42.71367 151.58804 30958 ft 600 kts 37°
2026-04-23 03:27 42.76891 151.67310 30987 ft 599 kts 37°
2026-04-23 03:27 42.82363 151.75763 30958 ft 598 kts 37°
2026-04-23 03:28 42.87858 151.84271 30959 ft 598 kts 37°
2026-04-23 03:28 42.93348 151.92799 30962 ft 596 kts 38°
2026-04-23 03:29 42.98816 152.01320 30960 ft 596 kts 38°
2026-04-23 03:29 43.03356 152.08412 31001 ft 595 kts 38°
2026-04-23 03:30 43.08789 152.16926 30968 ft 593 kts 39°
2026-04-23 03:30 43.14208 152.25442 30948 ft 593 kts 39°
2026-04-23 03:31 43.19621 152.33967 30942 ft 593 kts 39°
2026-04-23 03:31 43.25021 152.42501 30949 ft 591 kts 39°
2026-04-23 03:32 43.30406 152.51037 30946 ft 591 kts 39°
2026-04-23 03:32 43.35746 152.59525 30944 ft 591 kts 39°
2026-04-23 03:33 43.41099 152.68065 30942 ft 588 kts 40°
2026-04-23 03:33 43.46432 152.76593 30939 ft 588 kts 40°
2026-04-23 03:34 43.51768 152.85148 30939 ft 588 kts 40°
2026-04-23 03:34 43.57083 152.93697 30935 ft 587 kts 40°
2026-04-23 03:35 43.62392 153.02261 30934 ft 587 kts 40°
2026-04-23 03:35 43.67695 153.10843 30932 ft 587 kts 40°
2026-04-23 03:36 43.72985 153.19431 30953 ft 585 kts 41°
2026-04-23 03:36 43.78250 153.28004 30925 ft 585 kts 41°
2026-04-23 03:37 43.83523 153.36611 30934 ft 585 kts 41°
2026-04-23 03:37 43.88737 153.45150 30923 ft 584 kts 41°
2026-04-23 03:38 43.93982 153.53764 30921 ft 584 kts 41°
2026-04-23 03:38 43.99221 153.62394 30919 ft 584 kts 41°
2026-04-23 03:39 44.04459 153.71050 30918 ft 585 kts 42°
2026-04-23 03:39 44.09690 153.79718 30918 ft 585 kts 42°
2026-04-23 03:40 44.14914 153.88404 30917 ft 585 kts 42°
2026-04-23 03:40 44.20128 153.97099 30911 ft 584 kts 42°
2026-04-23 03:41 44.25331 154.05801 30911 ft 584 kts 42°
2026-04-23 03:41 44.30500 154.14471 30909 ft 584 kts 42°
2026-04-23 03:42 44.35680 154.23190 30908 ft 583 kts 43°
2026-04-23 03:42 44.40857 154.31927 30909 ft 583 kts 43°
2026-04-23 03:43 44.46012 154.40657 30902 ft 582 kts 43°
2026-04-23 03:43 44.51145 154.49376 30900 ft 580 kts 43°
2026-04-23 03:44 44.56271 154.58105 30894 ft 580 kts 43°
2026-04-23 03:44 44.61392 154.66852 30894 ft 580 kts 43°
2026-04-23 03:45 44.66492 154.75594 30894 ft 578 kts 44°
2026-04-23 03:45 44.71584 154.84348 30889 ft 578 kts 44°
2026-04-23 03:46 44.76666 154.93110 30912 ft 577 kts 44°
2026-04-23 03:46 44.81718 155.01854 30887 ft 574 kts 44°
2026-04-23 03:47 44.86751 155.10585 30881 ft 574 kts 45°
2026-04-23 03:47 44.91787 155.19346 30881 ft 574 kts 45°
2026-04-23 03:48 44.96770 155.28046 30884 ft 573 kts 45°
2026-04-23 03:48 45.01781 155.36821 30875 ft 573 kts 45°
2026-04-23 03:49 45.06785 155.45611 30883 ft 573 kts 45°
2026-04-23 03:49 45.11780 155.54412 30913 ft 571 kts 46°
2026-04-23 03:50 45.16734 155.63171 30870 ft 568 kts 46°
2026-04-23 03:50 45.21674 155.71927 30870 ft 568 kts 46°
2026-04-23 03:51 45.26575 155.80643 30872 ft 567 kts 46°
2026-04-23 03:51 45.31489 155.89408 30864 ft 567 kts 46°
2026-04-23 03:52 45.36394 155.98186 30866 ft 567 kts 46°
2026-04-23 03:52 45.41296 156.06984 30868 ft 566 kts 46°
2026-04-23 03:53 45.46168 156.15759 30861 ft 565 kts 46°
2026-04-23 03:53 45.51015 156.24517 30859 ft 562 kts 47°
2026-04-23 03:54 45.55854 156.33282 30854 ft 562 kts 47°
2026-04-23 03:54 45.60687 156.42064 30854 ft 562 kts 47°
2026-04-23 03:55 45.65490 156.50820 30854 ft 562 kts 47°
2026-04-23 03:55 45.70310 156.59635 30848 ft 562 kts 47°
2026-04-23 03:56 45.75110 156.68444 30851 ft 559 kts 47°
2026-04-23 03:56 45.79889 156.77239 30845 ft 559 kts 47°
2026-04-23 03:57 45.84646 156.86020 30845 ft 555 kts 48°
2026-04-23 03:57 45.89370 156.94768 30845 ft 554 kts 48°
2026-04-23 03:58 45.94059 157.03478 30838 ft 554 kts 48°
2026-04-23 03:58 45.98765 157.12246 30837 ft 554 kts 49°
2026-04-23 03:59 46.03470 157.21040 30835 ft 554 kts 49°
2026-04-23 03:59 46.08147 157.29810 30832 ft 552 kts 49°
2026-04-23 04:00 46.12823 157.38606 30824 ft 552 kts 49°
2026-04-23 04:00 46.17498 157.47426 30858 ft 552 kts 49°
2026-04-23 04:01 46.22101 157.56144 30827 ft 548 kts 50°
2026-04-23 04:01 46.26716 157.64905 30824 ft 548 kts 50°
2026-04-23 04:02 46.31325 157.73682 30821 ft 548 kts 50°
2026-04-23 04:02 46.35925 157.82471 30824 ft 547 kts 50°
2026-04-23 04:03 46.40508 157.91254 30815 ft 547 kts 50°
2026-04-23 04:03 46.45090 158.00065 30815 ft 547 kts 50°
2026-04-23 04:04 46.49671 158.08903 30815 ft 547 kts 50°
2026-04-23 04:04 46.54224 158.17712 30818 ft 542 kts 51°
2026-04-23 04:05 46.58739 158.26479 30813 ft 541 kts 51°
2026-04-23 04:05 46.63216 158.35195 30810 ft 541 kts 51°
2026-04-23 04:06 46.67717 158.43987 30803 ft 540 kts 51°
2026-04-23 04:06 46.72198 158.52767 30803 ft 540 kts 51°
2026-04-23 04:07 46.76674 158.61565 30806 ft 540 kts 51°
2026-04-23 04:07 46.81136 158.70366 30799 ft 540 kts 51°
2026-04-23 04:08 46.85595 158.79185 30800 ft 539 kts 52°
2026-04-23 04:08 46.90010 158.87950 30801 ft 535 kts 52°
2026-04-23 04:09 46.94408 158.96705 30799 ft 534 kts 52°
2026-04-23 04:09 46.98808 159.05491 30796 ft 534 kts 52°
2026-04-23 04:10 47.03189 159.14269 30794 ft 534 kts 52°
2026-04-23 04:10 47.07566 159.23065 30793 ft 534 kts 52°
2026-04-23 04:11 47.11943 159.31890 30794 ft 534 kts 52°
2026-04-23 04:11 47.16305 159.40713 30794 ft 534 kts 52°
2026-04-23 04:12 47.20661 159.49552 30787 ft 534 kts 52°
2026-04-23 04:12 47.24977 159.58338 30794 ft 529 kts 53°
2026-04-23 04:13 47.29279 159.67125 30792 ft 528 kts 53°
2026-04-23 04:13 47.33563 159.75901 30790 ft 527 kts 53°
2026-04-23 04:14 47.37839 159.84688 30792 ft 527 kts 53°
2026-04-23 04:14 47.42102 159.93478 30790 ft 527 kts 53°
2026-04-23 04:15 47.46369 160.02303 30791 ft 527 kts 53°
2026-04-23 04:16 47.52744 160.15543 30793 ft 527 kts 54°
2026-04-23 04:16 47.56987 160.24390 30794 ft 527 kts 54°
2026-04-23 04:17 47.61198 160.33199 30796 ft 527 kts 54°
2026-04-23 04:17 47.65415 160.42048 30796 ft 524 kts 54°
2026-04-23 04:18 47.69618 160.50897 30798 ft 524 kts 54°
2026-04-23 04:18 47.73811 160.59753 30800 ft 524 kts 54°
2026-04-23 04:19 47.77290 160.67123 30796 ft 524 kts 54°
2026-04-23 04:19 47.81471 160.76005 30798 ft 524 kts 54°
2026-04-23 04:20 47.85649 160.84913 30799 ft 525 kts 54°
2026-04-23 04:20 47.89816 160.93825 30798 ft 525 kts 54°
2026-04-23 04:21 47.93985 161.02769 30812 ft 524 kts 55°
2026-04-23 04:21 47.98111 161.11653 30802 ft 520 kts 55°
2026-04-23 04:22 48.02227 161.20542 30802 ft 520 kts 55°
2026-04-23 04:22 48.06317 161.29402 30801 ft 520 kts 55°
2026-04-23 04:23 48.10416 161.38314 30798 ft 520 kts 55°
2026-04-23 04:23 48.14516 161.47257 30806 ft 521 kts 55°
2026-04-23 04:24 48.18609 161.56212 30809 ft 521 kts 55°
2026-04-23 04:24 48.22699 161.65190 30812 ft 520 kts 55°
2026-04-23 04:25 48.26747 161.74107 30808 ft 520 kts 55°
2026-04-23 04:25 48.30800 161.83063 30811 ft 515 kts 56°
2026-04-23 04:26 48.34816 161.91967 30810 ft 514 kts 56°
2026-04-23 04:26 48.38822 162.00879 30812 ft 514 kts 56°
2026-04-23 04:27 48.42818 162.09799 30811 ft 512 kts 56°
2026-04-23 04:27 48.46792 162.18697 30813 ft 512 kts 56°
2026-04-23 04:28 48.52742 162.32074 30813 ft 512 kts 56°
2026-04-23 04:28 48.56704 162.41019 30812 ft 512 kts 56°
2026-04-23 04:29 48.60673 162.50011 30815 ft 516 kts 56°
2026-04-23 04:29 48.64644 162.59036 30821 ft 513 kts 56°
2026-04-23 04:30 48.68575 162.67999 30817 ft 509 kts 56°
2026-04-23 04:30 48.72482 162.76940 30818 ft 509 kts 56°
2026-04-23 04:31 48.76365 162.85855 30812 ft 509 kts 56°
2026-04-23 04:31 48.80263 162.94832 30815 ft 509 kts 56°
2026-04-23 04:32 48.84153 163.03823 30812 ft 509 kts 57°
2026-04-23 04:32 48.88035 163.12825 30814 ft 509 kts 57°
2026-04-23 04:33 48.91895 163.21805 30813 ft 507 kts 57°
2026-04-23 04:33 48.95746 163.30794 30814 ft 507 kts 57°
2026-04-23 04:34 48.99591 163.39800 30815 ft 504 kts 57°
2026-04-23 04:34 49.03368 163.48677 30812 ft 502 kts 57°
2026-04-23 04:35 49.07160 163.57618 30816 ft 502 kts 57°
2026-04-23 04:35 49.10946 163.66575 30815 ft 502 kts 57°
2026-04-23 04:36 49.14728 163.75553 30815 ft 502 kts 57°
2026-04-23 04:36 49.18499 163.84536 30815 ft 502 kts 57°
2026-04-23 04:37 49.22264 163.93534 30813 ft 502 kts 58°
2026-04-23 04:37 49.26003 164.02499 30813 ft 503 kts 58°
2026-04-23 04:38 49.29760 164.11539 30813 ft 503 kts 58°
2026-04-23 04:38 49.33507 164.20586 30814 ft 502 kts 58°
2026-04-23 04:39 49.37238 164.29624 30815 ft 502 kts 58°
2026-04-23 04:39 49.40962 164.38676 30812 ft 502 kts 58°
2026-04-23 04:40 49.44684 164.47756 30812 ft 502 kts 58°
2026-04-23 04:40 49.48395 164.56838 30815 ft 502 kts 58°
2026-04-23 04:41 49.52106 164.65952 30812 ft 504 kts 58°
2026-04-23 04:41 49.55822 164.75109 30813 ft 504 kts 58°
2026-04-23 04:42 49.59528 164.84274 30811 ft 504 kts 58°
2026-04-23 04:42 49.63225 164.93449 30810 ft 504 kts 58°
2026-04-23 04:43 49.66896 165.02591 30812 ft 506 kts 58°
2026-04-23 04:43 49.70597 165.11843 30812 ft 507 kts 58°
2026-04-23 04:44 49.74299 165.21127 30812 ft 507 kts 58°
2026-04-23 04:44 49.77997 165.30430 30813 ft 507 kts 58°
2026-04-23 04:45 49.81680 165.39734 30809 ft 509 kts 58°
2026-04-23 04:45 49.85376 165.49101 30812 ft 509 kts 58°
2026-04-23 04:46 49.89069 165.58495 30807 ft 510 kts 58°
2026-04-23 04:46 49.92751 165.67893 30806 ft 510 kts 58°
2026-04-23 04:47 49.96427 165.77311 30812 ft 511 kts 58°
2026-04-23 04:47 50.00115 165.86794 30807 ft 513 kts 58°
2026-04-23 04:48 50.03805 165.96316 30808 ft 515 kts 58°
2026-04-23 04:48 50.07495 166.05873 30807 ft 516 kts 58°
2026-04-23 04:49 50.11156 166.15390 30810 ft 516 kts 58°
2026-04-23 04:49 50.14853 166.25037 30806 ft 519 kts 58°
2026-04-23 04:50 50.18544 166.34702 30806 ft 519 kts 58°
2026-04-23 04:50 50.22232 166.44399 30806 ft 519 kts 58°
2026-04-23 04:51 50.25912 166.54106 30801 ft 519 kts 58°
2026-04-23 04:51 50.29579 166.63819 30801 ft 519 kts 58°
2026-04-23 04:52 50.33246 166.73566 30801 ft 519 kts 58°
2026-04-23 04:52 50.36898 166.83310 30805 ft 520 kts 58°
2026-04-23 04:53 50.40552 166.93098 30800 ft 520 kts 58°
2026-04-23 04:53 50.44181 167.02854 30797 ft 522 kts 58°
2026-04-23 04:54 50.47829 167.12701 30797 ft 522 kts 58°
2026-04-23 04:54 50.51465 167.22550 30798 ft 522 kts 58°
2026-04-23 04:55 50.55101 167.32439 30797 ft 522 kts 58°
2026-04-23 04:55 50.58722 167.42324 30801 ft 522 kts 58°
2026-04-23 04:56 50.62342 167.52246 30799 ft 522 kts 58°
2026-04-23 04:56 50.65957 167.62191 30784 ft 522 kts 58°
2026-04-23 04:57 50.69563 167.72151 30796 ft 522 kts 59°
2026-04-23 04:57 50.73134 167.82054 30789 ft 520 kts 59°
2026-04-23 04:58 50.76687 167.91942 30792 ft 520 kts 59°
2026-04-23 04:58 50.80245 168.01883 30786 ft 520 kts 59°
2026-04-23 04:59 50.83797 168.11847 30790 ft 520 kts 59°
2026-04-23 04:59 50.87343 168.21833 30789 ft 520 kts 59°
2026-04-23 05:00 50.90882 168.31841 30791 ft 520 kts 59°
2026-04-23 05:00 50.94411 168.41856 30789 ft 521 kts 59°
2026-04-23 05:01 50.97936 168.51902 30781 ft 520 kts 59°
2026-04-23 05:01 51.01445 168.61942 30782 ft 520 kts 59°
2026-04-23 05:02 51.04944 168.71993 30778 ft 520 kts 59°
2026-04-23 05:02 51.08438 168.82067 30773 ft 520 kts 59°
2026-04-23 05:03 51.11919 168.92146 30774 ft 520 kts 60°
2026-04-23 05:03 51.15395 169.02252 30775 ft 520 kts 60°
2026-04-23 05:04 51.18865 169.12378 30769 ft 520 kts 60°
2026-04-23 05:04 51.22299 169.22441 30772 ft 520 kts 60°
2026-04-23 05:05 51.25750 169.32596 30764 ft 520 kts 60°
2026-04-23 05:05 51.29194 169.42769 30764 ft 520 kts 60°
2026-04-23 05:06 51.32048 169.51231 30760 ft 519 kts 60°
2026-04-23 05:06 51.35470 169.61414 30767 ft 517 kts 61°
2026-04-23 05:07 51.38868 169.71570 30757 ft 517 kts 61°
2026-04-23 05:07 51.42254 169.81730 30752 ft 517 kts 61°
2026-04-23 05:08 51.45632 169.91907 30750 ft 518 kts 61°
2026-04-23 05:08 51.49008 170.02119 30743 ft 518 kts 61°
2026-04-23 05:09 51.52345 170.12258 30744 ft 517 kts 61°
2026-04-23 05:09 51.55704 170.22501 30743 ft 518 kts 61°
2026-04-23 05:10 51.59052 170.32757 30735 ft 517 kts 62°
2026-04-23 05:10 51.62392 170.43027 30730 ft 518 kts 62°
2026-04-23 05:11 51.65722 170.53312 30731 ft 518 kts 62°
2026-04-23 05:11 51.69038 170.63596 30734 ft 516 kts 62°
2026-04-23 05:12 51.72343 170.73887 30729 ft 516 kts 62°
2026-04-23 05:12 51.75634 170.84181 30724 ft 516 kts 62°
2026-04-23 05:13 51.78901 170.94439 30725 ft 517 kts 62°
2026-04-23 05:14 51.83813 171.09947 30716 ft 517 kts 63°
2026-04-23 05:14 51.87078 171.20310 30708 ft 516 kts 63°
2026-04-23 05:15 51.90341 171.30704 30708 ft 517 kts 63°
2026-04-23 05:15 51.93592 171.41110 30707 ft 517 kts 63°
2026-04-23 05:16 51.96833 171.51532 30703 ft 517 kts 63°
2026-04-23 05:16 52.00061 171.61951 30699 ft 516 kts 63°
2026-04-23 05:17 52.03283 171.72396 30684 ft 519 kts 64°
2026-04-23 05:17 52.06479 171.82803 30679 ft 518 kts 64°
2026-04-23 05:18 52.09682 171.93278 30676 ft 518 kts 64°
2026-04-23 05:18 52.12880 172.03783 30679 ft 519 kts 64°
2026-04-23 05:19 52.16089 172.14364 30661 ft 517 kts 65°
2026-04-23 05:19 52.19244 172.24820 30669 ft 517 kts 65°
2026-04-23 05:20 52.22419 172.35385 30661 ft 517 kts 65°
2026-04-23 05:20 52.25575 172.45936 30656 ft 517 kts 65°
2026-04-23 05:21 52.28729 172.56525 30647 ft 519 kts 65°
2026-04-23 05:21 52.31879 172.67147 30634 ft 519 kts 65°
2026-04-23 05:22 52.35017 172.77775 30641 ft 519 kts 66°
2026-04-23 05:22 52.38147 172.88423 30634 ft 519 kts 66°
2026-04-23 05:23 52.41265 172.99080 30634 ft 519 kts 66°
2026-04-23 05:23 52.44372 173.09743 30620 ft 519 kts 66°
2026-04-23 05:24 52.47455 173.20378 30616 ft 519 kts 66°
2026-04-23 05:24 52.50547 173.31086 30605 ft 519 kts 66°
2026-04-23 05:25 52.53627 173.41807 30595 ft 519 kts 66°
2026-04-23 05:25 52.56701 173.52552 30586 ft 520 kts 66°
2026-04-23 05:26 52.59769 173.63327 30585 ft 521 kts 66°
2026-04-23 05:26 52.62834 173.74141 30565 ft 521 kts 66°
2026-04-23 05:27 52.65871 173.84903 30555 ft 521 kts 66°
2026-04-23 05:27 52.68914 173.95739 30554 ft 521 kts 67°
2026-04-23 05:28 52.71120 174.07071 30553 ft 517 kts 84°
2026-04-23 05:28 52.71232 174.18838 30553 ft 512 kts 96°
2026-04-23 05:29 52.70654 174.30539 30553 ft 511 kts 98°
2026-04-23 05:29 52.69974 174.42227 30545 ft 511 kts 98°
2026-04-23 05:30 52.69306 174.53903 30541 ft 513 kts 98°
2026-04-23 05:30 52.68648 174.65621 30537 ft 514 kts 98°
2026-04-23 05:31 52.67989 174.77296 30534 ft 513 kts 98°
2026-04-23 05:31 52.67318 174.88997 30527 ft 513 kts 98°
2026-04-23 05:32 52.66632 175.00704 30509 ft 514 kts 98°
2026-04-23 05:32 52.65933 175.12435 30518 ft 514 kts 98°
2026-04-23 05:33 52.65225 175.24127 30519 ft 513 kts 98°
2026-04-23 05:33 52.64504 175.35821 30525 ft 513 kts 98°
2026-04-23 05:34 52.63771 175.47525 30508 ft 513 kts 98°
2026-04-23 05:34 52.63029 175.59196 30507 ft 513 kts 99°
2026-04-23 05:35 52.62274 175.70878 30502 ft 513 kts 99°
2026-04-23 05:35 52.61508 175.82555 30487 ft 513 kts 99°
2026-04-23 05:36 52.60731 175.94218 30488 ft 513 kts 99°
2026-04-23 05:36 52.59941 176.05891 30479 ft 514 kts 99°
2026-04-23 05:37 52.59143 176.17519 30484 ft 515 kts 99°
2026-04-23 05:37 52.58329 176.29214 30469 ft 515 kts 99°
2026-04-23 05:38 52.57503 176.40899 30461 ft 514 kts 99°
2026-04-23 05:38 52.56665 176.52587 30460 ft 516 kts 99°
2026-04-23 05:39 52.55813 176.64310 30453 ft 517 kts 99°
2026-04-23 05:39 52.54949 176.76038 30453 ft 517 kts 99°
2026-04-23 05:40 52.54073 176.87764 30447 ft 517 kts 99°
2026-04-23 05:40 52.53191 176.99402 30452 ft 517 kts 99°
2026-04-23 05:41 52.52291 177.11135 30446 ft 519 kts 98°
2026-04-23 05:41 52.51377 177.22881 30437 ft 519 kts 98°
2026-04-23 05:42 52.50452 177.34630 30439 ft 518 kts 99°
2026-04-23 05:42 52.49515 177.46360 30416 ft 517 kts 99°
2026-04-23 05:43 52.48569 177.58064 30421 ft 518 kts 99°
2026-04-23 05:43 52.47608 177.69802 30410 ft 517 kts 99°
2026-04-23 05:44 52.46638 177.81504 30400 ft 517 kts 99°
2026-04-23 05:44 52.45656 177.93214 30411 ft 518 kts 99°
2026-04-23 05:45 52.44667 178.04859 30402 ft 519 kts 99°
2026-04-23 05:45 52.43657 178.16603 30402 ft 520 kts 99°
2026-04-23 05:46 52.42637 178.28329 30394 ft 520 kts 99°
2026-04-23 05:46 52.41604 178.40072 30395 ft 520 kts 99°
2026-04-23 05:47 52.40558 178.51818 30385 ft 520 kts 99°
2026-04-23 05:47 52.39506 178.63488 30377 ft 521 kts 99°
2026-04-23 05:48 52.38437 178.75228 30377 ft 521 kts 99°
2026-04-23 05:48 52.37357 178.86950 30378 ft 521 kts 99°
2026-04-23 05:49 52.36263 178.98687 30377 ft 522 kts 99°
2026-04-23 05:49 52.35155 179.10439 30364 ft 523 kts 99°
2026-04-23 05:50 52.34034 179.22211 30362 ft 523 kts 99°
2026-04-23 05:50 52.32903 179.33959 30359 ft 523 kts 99°
2026-04-23 05:51 52.31758 179.45716 30352 ft 523 kts 99°
2026-04-23 05:51 52.30602 179.57468 30354 ft 526 kts 99°
2026-04-23 05:52 52.29426 179.69297 30347 ft 526 kts 99°
2026-04-23 05:52 52.28247 179.81030 30320 ft 524 kts 99°
2026-04-23 05:53 52.27054 179.92782 30345 ft 524 kts 99°
2026-04-23 05:53 52.25847 -179.95460 30344 ft 526 kts 99°
2026-04-23 05:54 52.24831 -179.85651 30343 ft 526 kts 99°
2026-04-23 05:54 52.23402 -179.71979 30343 ft 526 kts 99°
2026-04-23 05:55 52.22360 -179.62114 30343 ft 526 kts 99°
2026-04-23 05:55 52.21108 -179.50369 30334 ft 526 kts 99°
2026-04-23 05:56 52.19842 -179.38616 30329 ft 526 kts 99°
2026-04-23 05:56 52.18575 -179.26956 30336 ft 526 kts 100°
2026-04-23 05:57 52.17287 -179.15221 30332 ft 526 kts 100°
2026-04-23 05:57 52.15988 -179.03503 30332 ft 526 kts 100°
2026-04-23 05:58 52.14670 -178.91730 30325 ft 529 kts 100°
2026-04-23 05:58 52.13341 -178.79957 30323 ft 529 kts 100°
2026-04-23 05:59 52.12000 -178.68194 30323 ft 529 kts 100°
2026-04-23 05:59 52.10655 -178.56503 30317 ft 529 kts 100°
2026-04-23 06:00 52.09289 -178.44740 30317 ft 530 kts 100°
2026-04-23 06:00 52.07908 -178.32962 30326 ft 530 kts 100°
2026-04-23 06:01 52.06513 -178.21169 30321 ft 530 kts 100°
2026-04-23 06:01 52.05110 -178.09403 30320 ft 530 kts 100°
2026-04-23 06:02 52.03692 -177.97622 30313 ft 533 kts 100°
2026-04-23 06:02 52.02266 -177.85887 30300 ft 531 kts 100°
2026-04-23 06:03 52.00826 -177.74142 30303 ft 530 kts 100°
2026-04-23 06:03 51.99376 -177.62409 30303 ft 530 kts 101°
2026-04-23 06:04 51.97910 -177.50658 30304 ft 534 kts 100°
2026-04-23 06:04 51.96425 -177.38853 30309 ft 534 kts 101°
2026-04-23 06:05 51.94925 -177.27029 30308 ft 534 kts 101°
2026-04-23 06:05 51.93419 -177.15253 30307 ft 534 kts 101°
2026-04-23 06:06 51.91898 -177.03465 30311 ft 536 kts 101°
2026-04-23 06:06 51.90370 -176.91721 30313 ft 536 kts 101°
2026-04-23 06:07 51.88841 -176.79904 30313 ft 536 kts 99°
2026-04-23 06:07 51.88617 -176.67933 30317 ft 531 kts 79°
2026-04-23 06:08 51.90762 -176.56648 30324 ft 525 kts 61°
2026-04-23 06:08 51.94064 -176.46099 30315 ft 524 kts 58°
2026-04-23 06:09 51.97496 -176.35671 30304 ft 524 kts 58°
2026-04-23 06:09 52.00915 -176.25188 30298 ft 527 kts 58°
2026-04-23 06:10 52.04309 -176.14625 30284 ft 527 kts 58°
2026-04-23 06:10 52.07686 -176.04026 30278 ft 530 kts 58°
2026-04-23 06:11 52.11044 -175.93438 30287 ft 531 kts 59°
2026-04-23 06:11 52.14422 -175.82740 30274 ft 531 kts 59°
2026-04-23 06:12 52.17787 -175.72041 30285 ft 531 kts 59°
2026-04-23 06:12 52.22829 -175.55927 30274 ft 533 kts 59°
2026-04-23 06:13 52.26219 -175.45034 30263 ft 539 kts 59°
2026-04-23 06:13 52.29577 -175.34190 30259 ft 539 kts 59°
2026-04-23 06:14 52.32948 -175.23253 30266 ft 539 kts 59°
2026-04-23 06:14 52.36317 -175.12278 30262 ft 539 kts 59°
2026-04-23 06:15 52.39670 -175.01304 30253 ft 541 kts 60°
2026-04-23 06:15 52.43040 -174.90229 30276 ft 544 kts 60°
2026-04-23 06:16 52.46400 -174.79128 30247 ft 543 kts 60°
2026-04-23 06:16 52.49751 -174.68008 30247 ft 543 kts 60°
2026-04-23 06:17 52.53071 -174.56937 30255 ft 543 kts 60°
2026-04-23 06:17 52.56399 -174.45793 30244 ft 543 kts 61°
2026-04-23 06:18 52.59717 -174.34626 30248 ft 544 kts 61°
2026-04-23 06:18 52.63025 -174.23444 30268 ft 543 kts 61°
2026-04-23 06:19 52.66318 -174.12254 30236 ft 543 kts 61°
2026-04-23 06:19 52.69602 -174.01048 30236 ft 543 kts 61°
2026-04-23 06:20 52.72879 -173.89812 30222 ft 544 kts 62°
2026-04-23 06:20 52.76127 -173.78623 30223 ft 544 kts 62°
2026-04-23 06:21 52.79387 -173.67339 30220 ft 544 kts 62°
2026-04-23 06:21 52.82638 -173.56030 30220 ft 544 kts 62°
2026-04-23 06:22 52.85871 -173.44739 30226 ft 542 kts 63°
2026-04-23 06:22 52.89097 -173.33410 30214 ft 544 kts 63°
2026-04-23 06:23 52.92312 -173.22062 30217 ft 544 kts 64°
2026-04-23 06:23 52.95517 -173.10695 30209 ft 544 kts 64°
2026-04-23 06:24 52.98710 -172.99319 30217 ft 544 kts 64°
2026-04-23 06:24 53.01896 -172.87910 30208 ft 544 kts 64°
2026-04-23 06:25 53.05075 -172.76473 30219 ft 545 kts 65°
2026-04-23 06:25 53.08221 -172.65095 30220 ft 545 kts 65°
2026-04-23 06:26 53.11379 -172.53618 30222 ft 545 kts 65°
2026-04-23 06:26 53.14521 -172.42140 30220 ft 545 kts 65°
2026-04-23 06:27 53.17653 -172.30644 30213 ft 546 kts 66°
2026-04-23 06:27 53.20789 -172.19073 30220 ft 547 kts 66°
2026-04-23 06:28 53.23911 -172.07499 30241 ft 547 kts 66°
2026-04-23 06:28 53.27022 -171.95913 30225 ft 546 kts 66°
2026-04-23 06:29 53.30119 -171.84312 30220 ft 546 kts 66°
2026-04-23 06:29 53.33187 -171.72759 30220 ft 548 kts 67°
2026-04-23 06:30 53.36272 -171.61086 30223 ft 548 kts 68°
2026-04-23 06:30 53.39344 -171.49402 30238 ft 548 kts 68°
2026-04-23 06:31 53.42408 -171.37692 30234 ft 548 kts 68°
2026-04-23 06:31 53.45452 -171.25994 30238 ft 547 kts 68°
2026-04-23 06:32 53.48483 -171.14283 30234 ft 547 kts 69°
2026-04-23 06:32 53.51505 -171.02546 30256 ft 547 kts 69°
2026-04-23 06:33 53.54517 -170.90792 30256 ft 547 kts 69°
2026-04-23 06:33 53.57500 -170.79089 30270 ft 547 kts 69°
2026-04-23 06:34 53.60488 -170.67300 30264 ft 547 kts 69°
2026-04-23 06:34 53.63469 -170.55477 30287 ft 549 kts 70°
2026-04-23 06:35 53.66445 -170.43612 30268 ft 549 kts 70°
2026-04-23 06:35 53.69411 -170.31725 30284 ft 549 kts 70°
2026-04-23 06:36 53.72368 -170.19811 30288 ft 549 kts 70°
2026-04-23 06:36 53.75306 -170.07904 30296 ft 549 kts 70°
2026-04-23 06:37 53.78241 -169.95941 30294 ft 552 kts 71°
2026-04-23 06:37 53.81158 -169.83996 30314 ft 553 kts 71°
2026-04-23 06:38 53.84079 -169.71971 30307 ft 550 kts 71°
2026-04-23 06:38 53.86971 -169.59996 30328 ft 550 kts 71°
2026-04-23 06:39 53.89857 -169.47972 30321 ft 550 kts 71°
2026-04-23 06:39 53.92722 -169.35981 30335 ft 548 kts 72°
2026-04-23 06:40 53.95552 -169.24059 30339 ft 548 kts 72°
2026-04-23 06:40 53.98392 -169.12033 30337 ft 548 kts 72°
2026-04-23 06:41 54.01213 -169.00023 30341 ft 547 kts 72°
2026-04-23 06:41 54.04020 -168.88004 30348 ft 546 kts 72°
2026-04-23 06:42 54.06812 -168.75976 30347 ft 546 kts 72°
2026-04-23 06:42 54.09597 -168.63913 30365 ft 546 kts 73°
2026-04-23 06:43 54.11900 -168.53892 30361 ft 546 kts 73°
2026-04-23 06:43 54.14660 -168.41811 30378 ft 546 kts 73°
2026-04-23 06:44 54.17404 -168.29735 30382 ft 546 kts 73°
2026-04-23 06:44 54.20127 -168.17690 30396 ft 542 kts 74°
2026-04-23 06:45 54.22830 -168.05655 30395 ft 542 kts 74°
2026-04-23 06:45 54.25504 -167.93676 30407 ft 542 kts 74°
2026-04-23 06:46 54.28181 -167.81620 30406 ft 542 kts 74°
2026-04-23 06:46 54.30847 -167.69541 30420 ft 542 kts 74°
2026-04-23 06:47 54.33484 -167.57545 30418 ft 536 kts 74°
2026-04-23 06:47 54.36098 -167.45562 30453 ft 536 kts 75°
2026-04-23 06:48 54.38696 -167.33573 30437 ft 536 kts 75°
2026-04-23 06:48 54.41289 -167.21549 30451 ft 536 kts 75°
2026-04-23 06:49 54.43864 -167.09540 30454 ft 536 kts 75°
2026-04-23 06:49 54.46432 -166.97494 30459 ft 537 kts 75°
2026-04-23 06:50 54.48974 -166.85497 30462 ft 537 kts 75°
2026-04-23 06:50 54.51519 -166.73415 30468 ft 537 kts 75°
2026-04-23 06:51 54.54050 -166.61332 30471 ft 536 kts 75°
2026-04-23 06:51 54.56564 -166.49253 30483 ft 536 kts 75°
2026-04-23 06:52 54.59064 -166.37177 30488 ft 532 kts 75°
2026-04-23 06:52 54.61541 -166.25126 30506 ft 532 kts 75°
2026-04-23 06:53 54.63985 -166.13167 30506 ft 532 kts 76°
2026-04-23 06:53 54.66439 -166.01085 30533 ft 532 kts 76°
2026-04-23 06:54 54.68877 -165.89010 30534 ft 532 kts 76°
2026-04-23 06:54 54.71302 -165.76931 30548 ft 531 kts 76°
2026-04-23 06:55 54.73711 -165.64850 30555 ft 531 kts 76°
2026-04-23 06:55 54.76107 -165.52762 30570 ft 531 kts 76°
2026-04-23 06:56 54.78492 -165.40657 30570 ft 531 kts 76°
2026-04-23 06:56 54.80848 -165.28622 30593 ft 531 kts 76°
2026-04-23 06:57 54.83207 -165.16505 30570 ft 527 kts 77°
2026-04-23 06:57 54.85541 -165.04435 30608 ft 527 kts 77°
2026-04-23 06:58 54.87869 -164.92305 30601 ft 530 kts 77°
2026-04-23 06:58 54.90189 -164.80150 30631 ft 529 kts 77°
2026-04-23 06:59 54.92496 -164.67993 30623 ft 529 kts 77°
2026-04-23 06:59 54.94774 -164.55905 30595 ft 527 kts 77°
2026-04-23 07:00 54.97035 -164.43847 30646 ft 524 kts 77°
2026-04-23 07:00 54.99280 -164.31773 30645 ft 524 kts 77°
2026-04-23 07:01 55.01513 -164.19689 30659 ft 524 kts 77°
2026-04-23 07:01 55.03744 -164.07531 30656 ft 527 kts 77°
2026-04-23 07:02 55.05967 -163.95353 30667 ft 527 kts 78°
2026-04-23 07:02 55.08178 -163.83165 30667 ft 526 kts 78°
2026-04-23 07:03 55.10371 -163.70983 30686 ft 526 kts 78°
2026-04-23 07:03 55.12540 -163.58856 30686 ft 526 kts 78°
2026-04-23 07:04 55.14706 -163.46666 30705 ft 525 kts 78°
2026-04-23 07:04 55.16861 -163.34462 30708 ft 525 kts 78°
2026-04-23 07:05 55.19008 -163.22212 30717 ft 526 kts 78°
2026-04-23 07:05 55.21142 -163.09958 30722 ft 526 kts 78°
2026-04-23 07:06 55.23263 -162.97697 30722 ft 525 kts 78°
2026-04-23 07:06 55.25437 -162.85466 30719 ft 528 kts 74°
2026-04-23 07:07 55.29060 -162.74140 30720 ft 541 kts 54°
2026-04-23 07:07 55.34249 -162.64616 30728 ft 544 kts 46°
2026-04-23 07:08 55.39742 -162.55453 30729 ft 545 kts 46°
2026-04-23 07:08 55.45253 -162.46305 30737 ft 544 kts 46°
2026-04-23 07:09 55.50737 -162.37082 30759 ft 544 kts 46°
2026-04-23 07:09 55.56201 -162.27804 30763 ft 544 kts 46°
2026-04-23 07:10 55.61646 -162.18507 30754 ft 544 kts 46°
2026-04-23 07:10 55.67094 -162.09171 30754 ft 544 kts 47°
2026-04-23 07:11 55.72496 -161.99878 30759 ft 544 kts 47°
2026-04-23 07:12 55.80650 -161.85779 30772 ft 546 kts 46°
2026-04-23 07:12 55.86086 -161.76334 30779 ft 546 kts 47°
2026-04-23 07:13 55.91525 -161.66843 30784 ft 546 kts 47°
2026-04-23 07:13 55.96957 -161.57325 30770 ft 545 kts 47°
2026-04-23 07:14 56.02362 -161.47814 30799 ft 545 kts 47°
2026-04-23 07:14 56.07718 -161.38350 30797 ft 545 kts 47°
2026-04-23 07:15 56.13102 -161.28797 30804 ft 545 kts 47°
2026-04-23 07:15 56.18485 -161.19208 30819 ft 545 kts 47°
2026-04-23 07:16 56.23851 -161.09606 30820 ft 544 kts 47°
2026-04-23 07:16 56.29211 -160.99977 30820 ft 544 kts 47°
2026-04-23 07:17 56.34569 -160.90310 30820 ft 544 kts 47°
2026-04-23 07:17 56.39911 -160.80632 30825 ft 544 kts 47°
2026-04-23 07:18 56.45247 -160.70924 30835 ft 544 kts 47°
2026-04-23 07:18 56.50532 -160.61266 30838 ft 544 kts 47°
2026-04-23 07:19 56.55852 -160.51504 30834 ft 544 kts 48°
2026-04-23 07:19 56.61160 -160.41723 30840 ft 544 kts 48°
2026-04-23 07:20 56.66461 -160.31914 30851 ft 544 kts 48°
2026-04-23 07:20 56.71758 -160.22069 30853 ft 544 kts 48°
2026-04-23 07:21 56.77042 -160.12207 30858 ft 544 kts 48°
2026-04-23 07:21 56.82322 -160.02310 30859 ft 544 kts 48°
2026-04-23 07:22 56.87600 -159.92373 30860 ft 545 kts 48°
2026-04-23 07:22 56.92878 -159.82393 30868 ft 545 kts 48°
2026-04-23 07:23 56.98148 -159.72387 30864 ft 545 kts 49°
2026-04-23 07:23 57.03404 -159.62363 30870 ft 545 kts 49°
2026-04-23 07:24 57.08622 -159.52367 30876 ft 546 kts 49°
2026-04-23 07:24 57.13897 -159.42217 30882 ft 550 kts 49°
2026-04-23 07:25 57.19188 -159.31993 30881 ft 550 kts 49°
2026-04-23 07:25 57.24462 -159.21756 30883 ft 550 kts 49°
2026-04-23 07:26 57.29736 -159.11475 30881 ft 550 kts 49°
2026-04-23 07:26 57.34942 -159.01281 30887 ft 548 kts 49°
2026-04-23 07:27 57.40175 -158.90985 30886 ft 548 kts 49°
2026-04-23 07:27 57.45388 -158.80683 30886 ft 548 kts 49°
2026-04-23 07:28 57.50593 -158.70353 30884 ft 548 kts 50°
2026-04-23 07:28 57.55801 -158.59971 30889 ft 548 kts 50°
2026-04-23 07:29 57.60994 -158.49572 30895 ft 547 kts 50°
2026-04-23 07:29 57.66174 -158.39150 30900 ft 547 kts 50°
2026-04-23 07:30 57.71369 -158.28649 30898 ft 554 kts 50°
2026-04-23 07:30 57.76557 -158.18116 30906 ft 554 kts 50°
2026-04-23 07:31 57.81779 -158.07471 30919 ft 554 kts 50°
2026-04-23 07:31 57.86139 -157.98544 30919 ft 554 kts 51°
2026-04-23 07:32 57.91303 -157.87924 30922 ft 554 kts 51°
2026-04-23 07:32 57.96493 -157.77201 30921 ft 554 kts 51°
2026-04-23 07:33 58.01677 -157.66440 30921 ft 553 kts 51°
2026-04-23 07:33 58.06841 -157.55670 30916 ft 553 kts 51°
2026-04-23 07:34 58.12005 -157.44851 30952 ft 553 kts 51°
2026-04-23 07:34 58.17155 -157.34011 30951 ft 554 kts 51°
2026-04-23 07:35 58.22299 -157.23131 30955 ft 554 kts 51°
2026-04-23 07:35 58.27423 -157.12233 30937 ft 559 kts 52°
2026-04-23 07:36 58.32597 -157.01188 30932 ft 559 kts 52°
2026-04-23 07:36 58.37769 -156.90103 30918 ft 560 kts 52°
2026-04-23 07:37 58.42933 -156.78974 30917 ft 560 kts 52°
2026-04-23 07:37 58.48085 -156.67818 30918 ft 560 kts 52°
2026-04-23 07:38 58.53231 -156.56618 30924 ft 560 kts 52°
2026-04-23 07:38 58.58329 -156.45470 30904 ft 560 kts 52°
2026-04-23 07:39 58.63453 -156.34210 30921 ft 560 kts 52°
2026-04-23 07:39 58.68559 -156.22936 30926 ft 559 kts 52°
2026-04-23 07:40 58.73661 -156.11616 30938 ft 559 kts 53°
2026-04-23 07:40 58.78751 -156.00267 30944 ft 559 kts 53°
2026-04-23 07:41 58.83839 -155.88878 30953 ft 561 kts 53°
2026-04-23 07:41 58.88893 -155.77499 30948 ft 561 kts 53°
2026-04-23 07:42 58.93965 -155.66013 30969 ft 561 kts 53°
2026-04-23 07:42 58.99020 -155.54516 30967 ft 560 kts 54°
2026-04-23 07:43 59.04068 -155.42980 30977 ft 562 kts 54°
2026-04-23 07:43 59.09118 -155.31382 30986 ft 561 kts 54°
2026-04-23 07:44 59.14155 -155.19755 30982 ft 561 kts 54°
2026-04-23 07:44 59.19174 -155.08114 31011 ft 561 kts 54°
2026-04-23 07:45 59.24199 -154.96394 31008 ft 565 kts 54°
2026-04-23 07:45 59.29238 -154.84587 31012 ft 566 kts 54°
2026-04-23 07:46 59.34270 -154.72737 31019 ft 565 kts 55°
2026-04-23 07:46 59.39264 -154.60914 31029 ft 571 kts 56°
2026-04-23 07:47 59.44346 -154.48814 31036 ft 576 kts 56°
2026-04-23 07:47 59.49436 -154.36644 31037 ft 576 kts 56°
2026-04-23 07:48 59.54514 -154.24446 31037 ft 576 kts 56°
2026-04-23 07:48 59.59579 -154.12201 31060 ft 575 kts 56°
2026-04-23 07:49 59.64625 -153.99934 31058 ft 575 kts 56°
2026-04-23 07:49 59.69664 -153.87621 31066 ft 575 kts 56°
2026-04-23 07:50 59.74657 -153.75366 31072 ft 575 kts 56°
2026-04-23 07:50 59.79671 -153.62993 31074 ft 575 kts 56°
2026-04-23 07:51 59.84668 -153.50585 31077 ft 574 kts 56°
2026-04-23 07:51 59.89647 -153.38172 31100 ft 574 kts 56°
2026-04-23 07:52 59.94586 -153.25795 31120 ft 568 kts 56°
2026-04-23 07:52 59.99487 -153.13436 31108 ft 567 kts 57°
2026-04-23 07:53 60.04381 -153.01019 31114 ft 567 kts 57°
2026-04-23 07:53 60.09226 -152.88653 31127 ft 568 kts 57°
2026-04-23 07:54 60.14095 -152.76177 31126 ft 567 kts 57°
2026-04-23 07:54 60.18947 -152.63681 31123 ft 568 kts 57°
2026-04-23 07:55 60.23792 -152.51129 31132 ft 568 kts 57°
2026-04-23 07:55 60.28617 -152.38561 31132 ft 567 kts 57°
2026-04-23 07:56 60.33435 -152.25944 31132 ft 567 kts 57°
2026-04-23 07:56 60.38237 -152.13302 31138 ft 567 kts 57°
2026-04-23 07:57 60.43036 -152.00599 31143 ft 567 kts 57°
2026-04-23 07:57 60.47815 -151.87880 31096 ft 566 kts 57°
2026-04-23 07:58 60.52579 -151.75131 31147 ft 567 kts 57°
2026-04-23 07:58 60.57301 -151.62420 31147 ft 566 kts 57°
2026-04-23 07:59 60.62036 -151.49606 31147 ft 566 kts 57°
2026-04-23 07:59 60.66761 -151.36750 31137 ft 566 kts 57°
2026-04-23 08:00 60.71459 -151.23900 31146 ft 565 kts 57°
2026-04-23 08:00 60.76153 -151.10983 31151 ft 565 kts 57°
2026-04-23 08:01 60.80791 -150.98153 31152 ft 564 kts 57°
2026-04-23 08:01 60.85450 -150.85190 31156 ft 564 kts 58°
2026-04-23 08:02 60.90089 -150.72214 31159 ft 562 kts 57°
2026-04-23 08:02 60.94703 -150.59231 31159 ft 562 kts 58°
2026-04-23 08:03 60.99312 -150.46190 31142 ft 562 kts 58°
2026-04-23 08:03 61.03899 -150.33140 31143 ft 562 kts 58°
2026-04-23 08:04 61.08474 -150.20051 31130 ft 561 kts 58°
2026-04-23 08:04 61.13001 -150.07025 31129 ft 561 kts 58°
2026-04-23 08:05 61.16849 -149.93172 31108 ft 549 kts 75°
2026-04-23 08:05 61.18969 -149.78081 31128 ft 543 kts 82°
2026-04-23 08:06 61.20733 -149.62876 31129 ft 542 kts 83°
2026-04-23 08:06 61.22434 -149.47649 31130 ft 544 kts 83°
2026-04-23 08:07 61.24144 -149.32353 31115 ft 544 kts 83°
2026-04-23 08:07 61.25860 -149.17012 31152 ft 545 kts 82°
2026-04-23 08:08 61.27571 -149.01638 31166 ft 545 kts 82°
2026-04-23 08:08 61.29255 -148.86374 31200 ft 545 kts 83°
2026-04-23 08:09 61.30917 -148.71016 31195 ft 545 kts 83°
2026-04-23 08:09 61.32568 -148.55601 31190 ft 545 kts 83°
2026-04-23 08:10 61.34204 -148.40138 31223 ft 548 kts 83°
2026-04-23 08:10 61.36634 -148.16873 31233 ft 547 kts 82°
2026-04-23 08:11 61.38230 -148.01357 31279 ft 547 kts 83°
2026-04-23 08:11 61.39808 -147.85836 31289 ft 547 kts 83°
2026-04-23 08:12 61.41369 -147.70300 31317 ft 548 kts 83°
2026-04-23 08:12 61.42910 -147.54739 31313 ft 547 kts 83°
2026-04-23 08:13 61.44179 -147.41787 31293 ft 547 kts 83°
2026-04-23 08:13 61.45939 -147.23610 31322 ft 546 kts 83°
2026-04-23 08:14 61.47414 -147.08147 31306 ft 543 kts 83°
2026-04-23 08:14 61.48873 -146.92607 31333 ft 546 kts 83°
2026-04-23 08:15 61.50326 -146.76998 31337 ft 545 kts 83°
2026-04-23 08:15 61.51757 -146.61439 31305 ft 539 kts 82°
2026-04-23 08:16 61.53155 -146.46019 31356 ft 538 kts 82°
2026-04-23 08:16 61.54529 -146.30606 31369 ft 537 kts 82°
2026-04-23 08:17 61.55883 -146.15202 31336 ft 537 kts 82°
2026-04-23 08:17 61.56996 -146.02404 31330 ft 537 kts 82°
2026-04-23 08:18 61.58546 -145.84358 31308 ft 537 kts 82°
2026-04-23 08:18 61.59849 -145.68924 31333 ft 536 kts 82°
2026-04-23 08:19 61.60919 -145.56110 31309 ft 536 kts 83°
2026-04-23 08:19 61.62395 -145.38155 31271 ft 536 kts 82°
2026-04-23 08:20 61.63644 -145.22714 31295 ft 536 kts 82°
2026-04-23 08:20 61.64680 -145.09746 31279 ft 536 kts 82°
2026-04-23 08:21 61.65892 -144.94347 31303 ft 536 kts 82°
2026-04-23 08:21 61.67094 -144.78842 31306 ft 536 kts 82°
2026-04-23 08:22 61.68283 -144.63270 31303 ft 541 kts 83°
2026-04-23 08:22 61.69462 -144.47583 31323 ft 541 kts 83°
2026-04-23 08:23 61.70620 -144.31924 31319 ft 540 kts 83°
2026-04-23 08:23 61.71752 -144.16370 31332 ft 541 kts 83°
2026-04-23 08:24 61.72874 -144.00687 31330 ft 541 kts 83°
2026-04-23 08:24 61.73980 -143.84991 31310 ft 541 kts 83°
2026-04-23 08:25 61.75067 -143.69269 31316 ft 544 kts 83°
2026-04-23 08:25 61.76143 -143.53443 31278 ft 544 kts 83°
2026-04-23 08:26 61.77198 -143.37631 31292 ft 542 kts 83°
2026-04-23 08:26 61.78235 -143.21843 31303 ft 542 kts 83°
2026-04-23 08:27 61.79251 -143.06062 31261 ft 542 kts 83°
2026-04-23 08:27 61.80251 -142.90271 31303 ft 542 kts 83°
2026-04-23 08:28 61.81230 -142.74482 31268 ft 540 kts 83°
2026-04-23 08:28 61.82176 -142.58901 31287 ft 537 kts 83°
2026-04-23 08:29 61.83114 -142.43218 31289 ft 537 kts 83°
2026-04-23 08:29 61.84032 -142.27572 31249 ft 534 kts 82°
2026-04-23 08:30 61.84927 -142.11965 31234 ft 534 kts 83°
2026-04-23 08:30 61.85803 -141.96347 31207 ft 534 kts 83°
2026-04-23 08:31 61.86662 -141.80733 31209 ft 534 kts 83°
2026-04-23 08:31 61.87507 -141.65020 31206 ft 538 kts 83°
2026-04-23 08:32 61.88338 -141.49258 31192 ft 538 kts 83°
2026-04-23 08:32 61.89146 -141.33564 31199 ft 540 kts 83°
2026-04-23 08:33 61.89944 -141.17727 31205 ft 540 kts 83°
2026-04-23 08:33 61.90723 -141.01871 31215 ft 541 kts 83°
2026-04-23 08:34 61.91484 -140.85994 31214 ft 540 kts 83°
2026-04-23 08:34 61.92228 -140.70098 31236 ft 542 kts 83°
2026-04-23 08:35 61.92957 -140.54155 31243 ft 542 kts 84°
2026-04-23 08:35 61.93665 -140.38223 31243 ft 542 kts 84°
2026-04-23 08:36 61.94353 -140.22287 31243 ft 542 kts 84°
2026-04-23 08:36 61.95026 -140.06313 31254 ft 542 kts 84°
2026-04-23 08:37 61.95680 -139.90355 31259 ft 542 kts 84°
2026-04-23 08:37 61.96316 -139.74360 31284 ft 544 kts 84°
2026-04-23 08:38 61.96935 -139.58307 31273 ft 545 kts 84°
2026-04-23 08:38 61.97537 -139.42244 31271 ft 545 kts 84°
2026-04-23 08:39 61.98119 -139.26185 31277 ft 544 kts 84°
2026-04-23 08:39 61.98681 -139.10129 31280 ft 544 kts 84°
2026-04-23 08:40 61.99222 -138.94156 31279 ft 544 kts 84°
2026-04-23 08:40 61.99748 -138.78086 31282 ft 544 kts 85°
2026-04-23 08:41 62.00251 -138.62073 31282 ft 542 kts 84°
2026-04-23 08:41 62.00739 -138.46056 31288 ft 542 kts 84°
2026-04-23 08:42 62.01207 -138.30032 31278 ft 542 kts 84°
2026-04-23 08:42 62.01655 -138.14028 31290 ft 542 kts 84°
2026-04-23 08:43 62.02086 -137.98018 31296 ft 542 kts 84°
2026-04-23 08:43 62.02498 -137.81995 31296 ft 542 kts 84°
2026-04-23 08:44 62.02891 -137.65974 31301 ft 542 kts 85°
2026-04-23 08:44 62.03264 -137.50049 31300 ft 542 kts 85°
2026-04-23 08:45 62.03620 -137.33999 31302 ft 542 kts 85°
2026-04-23 08:45 62.03957 -137.17962 31290 ft 542 kts 85°
2026-04-23 08:46 62.04276 -137.01907 31287 ft 542 kts 85°
2026-04-23 08:46 62.04577 -136.85873 31283 ft 542 kts 85°
2026-04-23 08:47 62.04860 -136.69782 31288 ft 544 kts 85°
2026-04-23 08:47 62.05125 -136.53665 31282 ft 544 kts 85°
2026-04-23 08:48 62.05370 -136.37546 31278 ft 544 kts 85°
2026-04-23 08:48 62.05596 -136.21427 31277 ft 544 kts 85°
2026-04-23 08:49 62.05803 -136.05284 31283 ft 543 kts 85°
2026-04-23 08:49 62.05992 -135.89276 31286 ft 544 kts 85°
2026-04-23 08:50 62.06162 -135.73165 31314 ft 544 kts 85°
2026-04-23 08:50 62.06311 -135.57057 31294 ft 543 kts 85°
2026-04-23 08:51 62.06445 -135.40943 31303 ft 543 kts 85°
2026-04-23 08:51 62.06562 -135.24822 31302 ft 544 kts 85°
2026-04-23 08:52 62.06656 -135.08731 31316 ft 543 kts 85°
2026-04-23 08:52 62.06732 -134.92630 31317 ft 543 kts 85°
2026-04-23 08:53 62.06791 -134.76521 31316 ft 543 kts 85°
2026-04-23 08:53 62.06828 -134.60421 31326 ft 543 kts 85°
2026-04-23 08:54 62.06848 -134.44320 31330 ft 543 kts 85°
2026-04-23 08:54 62.06850 -134.28205 31334 ft 543 kts 85°
2026-04-23 08:55 62.06832 -134.12111 31337 ft 543 kts 85°
2026-04-23 08:55 62.06797 -133.96115 31340 ft 543 kts 85°
2026-04-23 08:56 62.06744 -133.79995 31339 ft 543 kts 85°
2026-04-23 08:56 62.06671 -133.63847 31339 ft 543 kts 84°
2026-04-23 08:57 62.06577 -133.47748 31342 ft 544 kts 85°
2026-04-23 08:57 62.06466 -133.31630 31339 ft 543 kts 85°
2026-04-23 08:58 62.06338 -133.15520 31329 ft 543 kts 85°
2026-04-23 08:58 62.06189 -132.99517 31338 ft 543 kts 85°
2026-04-23 08:59 62.06023 -132.83434 31339 ft 543 kts 85°
2026-04-23 08:59 62.05836 -132.67332 31345 ft 544 kts 84°
2026-04-23 09:00 62.05631 -132.51178 31343 ft 545 kts 84°
2026-04-23 09:00 62.05408 -132.35048 31339 ft 545 kts 84°
2026-04-23 09:01 62.05166 -132.18888 31344 ft 545 kts 85°
2026-04-23 09:01 62.04904 -132.02734 31339 ft 545 kts 84°
2026-04-23 09:02 62.04623 -131.86591 31333 ft 545 kts 85°
2026-04-23 09:02 62.04322 -131.70449 31374 ft 546 kts 84°
2026-04-23 09:03 62.04004 -131.54368 31335 ft 546 kts 84°
2026-04-23 09:03 62.03664 -131.38179 31334 ft 546 kts 84°
2026-04-23 09:04 62.03307 -131.22013 31341 ft 546 kts 84°
2026-04-23 09:04 62.02932 -131.05864 31335 ft 546 kts 84°
2026-04-23 09:05 62.02536 -130.89718 31332 ft 546 kts 84°
2026-04-23 09:05 62.02123 -130.73564 31349 ft 546 kts 84°
2026-04-23 09:06 62.01689 -130.57403 31332 ft 547 kts 84°
2026-04-23 09:06 62.01317 -130.43963 31332 ft 547 kts 84°
2026-04-23 09:07 62.00769 -130.25049 31332 ft 548 kts 84°
2026-04-23 09:07 62.00281 -130.08970 31334 ft 548 kts 84°
2026-04-23 09:08 61.99811 -129.92807 31330 ft 545 kts 83°
2026-04-23 09:08 61.99693 -129.79470 31338 ft 542 kts 81°
2026-04-23 09:09 61.99649 -129.63383 31328 ft 544 kts 80°
2026-04-23 09:09 61.99514 -129.44527 31340 ft 546 kts 81°
2026-04-23 09:10 61.99268 -129.23001 31342 ft 547 kts 82°
2026-04-23 09:11 61.99046 -129.06816 31340 ft 548 kts 82°
2026-04-23 09:11 61.98809 -128.90646 31329 ft 545 kts 82°
2026-04-23 09:12 61.98560 -128.74474 31396 ft 549 kts 81°
2026-04-23 09:12 61.98295 -128.58251 31353 ft 549 kts 81°
2026-04-23 09:13 61.98008 -128.42107 31355 ft 550 kts 82°
2026-04-23 09:13 61.97700 -128.25860 31357 ft 550 kts 82°
2026-04-23 09:14 61.97371 -128.09642 31361 ft 549 kts 82°
2026-04-23 09:14 61.97018 -127.93412 31366 ft 550 kts 82°
2026-04-23 09:15 61.96697 -127.77215 31365 ft 549 kts 82°
2026-04-23 09:15 61.96303 -127.60994 31373 ft 550 kts 82°
2026-04-23 09:16 61.95879 -127.44771 31369 ft 550 kts 82°
2026-04-23 09:16 61.95449 -127.28646 31367 ft 549 kts 83°
2026-04-23 09:17 61.95010 -127.12437 31377 ft 549 kts 83°
2026-04-23 09:17 61.94551 -126.96227 31375 ft 550 kts 83°
2026-04-23 09:18 61.94069 -126.79964 31374 ft 549 kts 82°
2026-04-23 09:18 61.93577 -126.63789 31368 ft 549 kts 83°
2026-04-23 09:19 61.93060 -126.47588 31371 ft 549 kts 83°
2026-04-23 09:19 61.92523 -126.31389 31370 ft 549 kts 83°
2026-04-23 09:20 61.91974 -126.15299 31362 ft 551 kts 83°
2026-04-23 09:20 61.91399 -125.99111 31360 ft 550 kts 83°
2026-04-23 09:21 61.90803 -125.82893 31353 ft 551 kts 83°
2026-04-23 09:21 61.90188 -125.66707 31359 ft 548 kts 83°
2026-04-23 09:22 61.89559 -125.50562 31347 ft 549 kts 83°
2026-04-23 09:22 61.88910 -125.34396 31365 ft 549 kts 83°
2026-04-23 09:23 61.88242 -125.18263 31351 ft 549 kts 84°
2026-04-23 09:23 61.87559 -125.02228 31369 ft 550 kts 84°
2026-04-23 09:24 61.86855 -124.86105 31372 ft 549 kts 85°
2026-04-23 09:24 61.86121 -124.69997 31372 ft 548 kts 85°
2026-04-23 09:25 61.85378 -124.53946 31374 ft 547 kts 86°
2026-04-23 09:25 61.84622 -124.37896 31374 ft 547 kts 86°
2026-04-23 09:26 61.83848 -124.21874 31374 ft 547 kts 86°
2026-04-23 09:26 61.83054 -124.05924 31415 ft 548 kts 87°
2026-04-23 09:27 61.82238 -123.89994 31363 ft 544 kts 88°
2026-04-23 09:27 61.81411 -123.74092 31356 ft 544 kts 88°
2026-04-23 09:28 61.80565 -123.58185 31351 ft 544 kts 88°
2026-04-23 09:28 61.79704 -123.42346 31384 ft 541 kts 89°
2026-04-23 09:29 61.78825 -123.26549 31391 ft 541 kts 89°
2026-04-23 09:29 61.77930 -123.10762 31445 ft 539 kts 90°
2026-04-23 09:30 61.77028 -122.95178 31408 ft 537 kts 90°
2026-04-23 09:30 61.76101 -122.79506 31411 ft 538 kts 91°
2026-04-23 09:31 61.75155 -122.63838 31405 ft 538 kts 91°
2026-04-23 09:31 61.74191 -122.48174 31396 ft 537 kts 91°
2026-04-23 09:32 61.73214 -122.32570 31382 ft 537 kts 91°
2026-04-23 09:32 61.72217 -122.16965 31413 ft 535 kts 92°
2026-04-23 09:33 61.71206 -122.01419 31371 ft 535 kts 92°
2026-04-23 09:33 61.70175 -121.85887 31361 ft 535 kts 93°
2026-04-23 09:34 61.69135 -121.70470 31350 ft 535 kts 93°
2026-04-23 09:34 61.68071 -121.54961 31337 ft 535 kts 93°
2026-04-23 09:35 61.66988 -121.39450 31336 ft 534 kts 94°
2026-04-23 09:35 61.65892 -121.23991 31352 ft 532 kts 94°
2026-04-23 09:36 61.64782 -121.08615 31335 ft 532 kts 95°
2026-04-23 09:36 61.63656 -120.93244 31357 ft 532 kts 95°
2026-04-23 09:37 61.62513 -120.77886 31360 ft 532 kts 95°
2026-04-23 09:37 61.61352 -120.62524 31360 ft 532 kts 95°
2026-04-23 09:38 61.60174 -120.47176 31363 ft 532 kts 95°
2026-04-23 09:38 61.58980 -120.31855 31377 ft 529 kts 96°
2026-04-23 09:39 61.57776 -120.16639 31371 ft 528 kts 96°
2026-04-23 09:39 61.56554 -120.01428 31371 ft 528 kts 96°
2026-04-23 09:40 61.55326 -119.86347 31373 ft 528 kts 96°
2026-04-23 09:40 61.54072 -119.71168 31379 ft 528 kts 97°
2026-04-23 09:41 61.52798 -119.55974 31379 ft 528 kts 97°
2026-04-23 09:41 61.51510 -119.40816 31400 ft 527 kts 97°
2026-04-23 09:42 61.50207 -119.25715 31382 ft 526 kts 98°
2026-04-23 09:42 61.48891 -119.10657 31382 ft 526 kts 98°
2026-04-23 09:43 61.47565 -118.95685 31374 ft 526 kts 98°
2026-04-23 09:43 61.46213 -118.80628 31375 ft 526 kts 98°
2026-04-23 09:44 61.44847 -118.65599 31380 ft 526 kts 98°
2026-04-23 09:44 61.43463 -118.50575 31368 ft 526 kts 98°
2026-04-23 09:45 61.42063 -118.35568 31377 ft 526 kts 98°
2026-04-23 09:45 61.40647 -118.20591 31374 ft 524 kts 99°
2026-04-23 09:46 61.39218 -118.05658 31374 ft 524 kts 99°
2026-04-23 09:46 61.37774 -117.90745 31376 ft 524 kts 99°
2026-04-23 09:47 61.36324 -117.75947 31378 ft 524 kts 99°
2026-04-23 09:47 61.34849 -117.61076 31387 ft 523 kts 100°
2026-04-23 09:48 61.33361 -117.46258 31376 ft 522 kts 100°
2026-04-23 09:48 61.31860 -117.31466 31375 ft 522 kts 100°
2026-04-23 09:49 61.30344 -117.16693 31375 ft 521 kts 101°
2026-04-23 09:49 61.28811 -117.01942 31373 ft 521 kts 101°
2026-04-23 09:50 61.27275 -116.87329 31378 ft 521 kts 101°
2026-04-23 09:50 61.25710 -116.72619 31389 ft 521 kts 101°
2026-04-23 09:51 61.24136 -116.57974 31380 ft 520 kts 102°
2026-04-23 09:51 61.22543 -116.43320 31376 ft 520 kts 102°
2026-04-23 09:52 61.20935 -116.28684 31374 ft 519 kts 102°
2026-04-23 09:52 61.19315 -116.14084 31364 ft 518 kts 102°
2026-04-23 09:53 61.17683 -115.99545 31373 ft 517 kts 103°
2026-04-23 09:53 61.16036 -115.85038 31360 ft 517 kts 103°
2026-04-23 09:54 61.14374 -115.70547 31362 ft 516 kts 104°
2026-04-23 09:54 61.12708 -115.56167 31360 ft 516 kts 104°
2026-04-23 09:55 61.11019 -115.41728 31365 ft 517 kts 104°
2026-04-23 09:55 61.09313 -115.27294 31367 ft 517 kts 104°
2026-04-23 09:56 61.07592 -115.12875 31362 ft 515 kts 104°
2026-04-23 09:56 61.05861 -114.98522 31361 ft 515 kts 104°
2026-04-23 09:57 61.04115 -114.84171 31361 ft 515 kts 105°
2026-04-23 09:57 61.02353 -114.69846 31376 ft 515 kts 105°
2026-04-23 09:58 61.00575 -114.55536 31360 ft 515 kts 106°
2026-04-23 09:58 60.99086 -114.43650 31359 ft 515 kts 106°
2026-04-23 09:59 60.97283 -114.29383 31355 ft 515 kts 106°
2026-04-23 09:59 60.95462 -114.15106 31338 ft 514 kts 106°
2026-04-23 10:00 60.93637 -114.00904 31352 ft 513 kts 107°
2026-04-23 10:00 60.91796 -113.86747 31355 ft 513 kts 107°
2026-04-23 10:01 60.89936 -113.72586 31349 ft 513 kts 107°
2026-04-23 10:01 60.88075 -113.58535 31347 ft 513 kts 108°
2026-04-23 10:02 60.86191 -113.44427 31344 ft 512 kts 108°
2026-04-23 10:02 60.84290 -113.30320 31341 ft 512 kts 108°
2026-04-23 10:03 60.82376 -113.16239 31333 ft 513 kts 108°
2026-04-23 10:03 60.80452 -113.02201 31344 ft 512 kts 109°
2026-04-23 10:04 60.78511 -112.88193 31330 ft 512 kts 109°
2026-04-23 10:04 60.76565 -112.74264 31330 ft 512 kts 109°
2026-04-23 10:05 60.74595 -112.60278 31330 ft 511 kts 109°
2026-04-23 10:05 60.72613 -112.46321 31319 ft 511 kts 109°
2026-04-23 10:06 60.70615 -112.32369 31312 ft 511 kts 110°
2026-04-23 10:06 60.68605 -112.18447 31323 ft 512 kts 110°
2026-04-23 10:07 60.66585 -112.04562 31315 ft 510 kts 111°
2026-04-23 10:07 60.64546 -111.90694 31313 ft 510 kts 111°
2026-04-23 10:08 60.62497 -111.76872 31306 ft 510 kts 111°
2026-04-23 10:08 60.60433 -111.63057 31306 ft 510 kts 111°
2026-04-23 10:09 60.57311 -111.42335 31321 ft 511 kts 112°
2026-04-23 10:09 60.55207 -111.28531 31314 ft 511 kts 113°
2026-04-23 10:10 60.53103 -111.14826 31292 ft 510 kts 114°
2026-04-23 10:10 60.50974 -111.01076 31300 ft 510 kts 114°
2026-04-23 10:11 60.48828 -110.87350 31300 ft 510 kts 114°
2026-04-23 10:11 60.46667 -110.73626 31296 ft 510 kts 114°
2026-04-23 10:12 60.44506 -110.59999 31277 ft 512 kts 115°
2026-04-23 10:12 60.42312 -110.46271 31290 ft 512 kts 115°
2026-04-23 10:13 60.40107 -110.32573 31289 ft 512 kts 115°
2026-04-23 10:13 60.37887 -110.18885 31238 ft 513 kts 117°
2026-04-23 10:14 60.35650 -110.05194 31275 ft 513 kts 117°
2026-04-23 10:14 60.33395 -109.91514 31278 ft 513 kts 117°
2026-04-23 10:15 60.31132 -109.77891 31281 ft 512 kts 117°
2026-04-23 10:15 60.28853 -109.64271 31284 ft 512 kts 118°
2026-04-23 10:16 60.26577 -109.50766 31281 ft 512 kts 118°
2026-04-23 10:16 60.24273 -109.37199 31271 ft 512 kts 118°
2026-04-23 10:17 60.21955 -109.23653 31282 ft 512 kts 118°
2026-04-23 10:17 60.19626 -109.10135 31281 ft 511 kts 118°
2026-04-23 10:18 60.17282 -108.96627 31273 ft 514 kts 119°
2026-04-23 10:18 60.14911 -108.83070 31279 ft 514 kts 119°
2026-04-23 10:19 60.12542 -108.69617 31265 ft 514 kts 119°
2026-04-23 10:19 60.10147 -108.56115 31266 ft 514 kts 119°
2026-04-23 10:20 60.07740 -108.42645 31264 ft 513 kts 120°
2026-04-23 10:20 60.05323 -108.29203 31237 ft 512 kts 120°
2026-04-23 10:21 60.02892 -108.15795 31245 ft 515 kts 120°
2026-04-23 10:21 60.00431 -108.02338 31263 ft 515 kts 120°
2026-04-23 10:22 59.97864 -107.89008 31246 ft 512 kts 122°
2026-04-23 10:22 59.95090 -107.75951 31246 ft 510 kts 123°
2026-04-23 10:23 59.92305 -107.62940 31247 ft 511 kts 123°
2026-04-23 10:23 59.89536 -107.49899 31232 ft 511 kts 123°
2026-04-23 10:24 59.86771 -107.36860 31200 ft 511 kts 122°
2026-04-23 10:24 59.83975 -107.23772 31221 ft 514 kts 122°
2026-04-23 10:25 59.81187 -107.10777 31211 ft 514 kts 123°
2026-04-23 10:25 59.78368 -106.97724 31224 ft 514 kts 123°
2026-04-23 10:26 59.75535 -106.84699 31209 ft 514 kts 123°
2026-04-23 10:26 59.72691 -106.71705 31212 ft 513 kts 123°
2026-04-23 10:27 59.69832 -106.58722 31163 ft 512 kts 123°
2026-04-23 10:27 59.66964 -106.45788 31200 ft 513 kts 123°
2026-04-23 10:28 59.64085 -106.32874 31206 ft 513 kts 123°
2026-04-23 10:28 59.61198 -106.19998 31196 ft 513 kts 123°
2026-04-23 10:29 59.58298 -106.07148 31201 ft 512 kts 123°
2026-04-23 10:29 59.55383 -105.94314 31201 ft 512 kts 123°
2026-04-23 10:30 59.52482 -105.81611 31169 ft 512 kts 123°
2026-04-23 10:30 59.49526 -105.68781 31168 ft 515 kts 123°
2026-04-23 10:31 59.46556 -105.55931 31164 ft 515 kts 123°
2026-04-23 10:31 59.43579 -105.43111 31177 ft 515 kts 123°
2026-04-23 10:32 59.40590 -105.30323 31184 ft 515 kts 123°
2026-04-23 10:32 59.37590 -105.17573 31188 ft 515 kts 123°
2026-04-23 10:33 59.34595 -105.04924 31193 ft 515 kts 123°
2026-04-23 10:33 59.31557 -104.92174 31139 ft 517 kts 123°
2026-04-23 10:34 59.28511 -104.79457 31188 ft 516 kts 123°
2026-04-23 10:34 59.26994 -104.73137 31187 ft 505 kts 123°
2026-04-23 10:34 59.25499 -104.67105 31296 ft 478 kts 127°
2026-04-23 10:35 59.23669 -104.62037 31412 ft 437 kts 144°
2026-04-23 10:35 59.22137 -104.59680 30933 ft 415 kts 160°
2026-04-23 10:35 59.18482 -104.58344 26752 ft 406 kts 191°
2026-04-23 10:35 59.15934 -104.59373 18866 ft 334 kts 196°
2026-04-23 10:36 59.14111 -104.60935 6822 ft 240 kts 205°
2026-04-23 10:36 59.13606 -104.61703 1046 ft 0 kts 118°
2026-04-23 10:38 59.13607 -104.61703 1046 ft 0 kts 118°
2026-04-23 10:40 59.13608 -104.61703 1046 ft 0 kts 119°
2026-04-23 10:42 59.13609 -104.61703 1046 ft 0 kts 119°
2026-04-23 10:44 59.13610 -104.61703 1046 ft 0 kts 119°
2026-04-23 10:46 59.13611 -104.61703 1046 ft 0 kts 119°
2026-04-23 10:48 59.13612 -104.61703 1046 ft 0 kts 120°
2026-04-23 10:50 59.13613 -104.61703 1046 ft 0 kts 120°
2026-04-23 10:52 59.13614 -104.61703 1046 ft 0 kts 120°
2026-04-23 10:54 59.13615 -104.61703 1047 ft 0 kts 121°
2026-04-23 10:56 59.13616 -104.61703 1047 ft 0 kts 122°
2026-04-23 10:58 59.13617 -104.61703 1047 ft 0 kts 122°
2026-04-23 11:00 59.13618 -104.61703 1044 ft 0 kts 122°
2026-04-23 11:01 59.13618 -104.61702 1044 ft 0 kts 123°
2026-04-23 11:02 59.13619 -104.61702 1044 ft 0 kts 123°
2026-04-23 11:04 59.13620 -104.61702 1044 ft 0 kts 123°
2026-04-23 11:07 59.13621 -104.61702 1044 ft 0 kts 123°
2026-04-23 11:09 59.13622 -104.61702 1047 ft 0 kts 123°
2026-04-23 11:11 59.13623 -104.61702 1047 ft 0 kts 123°
2026-04-23 11:12 59.13623 -104.61703 1047 ft 1 kts 124°
2026-04-23 11:13 59.13623 -104.61702 1047 ft 0 kts 124°
2026-04-23 11:13 59.13624 -104.61702 1047 ft 0 kts 124°
2026-04-23 11:15 59.13625 -104.61702 1047 ft 0 kts 124°
2026-04-23 11:18 59.13626 -104.61702 1047 ft 0 kts 125°
2026-04-23 11:19 59.13626 -104.61701 1047 ft 0 kts 125°
2026-04-23 11:20 59.13627 -104.61701 1044 ft 0 kts 125°
2026-04-23 11:22 59.13628 -104.61701 1044 ft 0 kts 126°
2026-04-23 11:24 59.13629 -104.61701 1047 ft 0 kts 126°
2026-04-23 11:24 59.13629 -104.61700 1047 ft 0 kts 126°
2026-04-23 11:26 59.13630 -104.61700 1047 ft 0 kts 126°
2026-04-23 11:28 59.13631 -104.61700 1047 ft 0 kts 127°
2026-04-23 11:30 59.13632 -104.61700 1047 ft 0 kts 127°
2026-04-23 11:30 59.13632 -104.61699 1047 ft 0 kts 127°
2026-04-23 11:31 59.13633 -104.61699 1047 ft 0 kts 127°
2026-04-23 11:33 59.13634 -104.61699 1047 ft 0 kts 128°
2026-04-23 11:35 59.13634 -104.61698 1047 ft 0 kts 128°
2026-04-23 11:35 59.13635 -104.61698 1047 ft 0 kts 128°
2026-04-23 11:37 59.13636 -104.61698 1042 ft 0 kts 128°
2026-04-23 11:40 59.13637 -104.61698 1047 ft 0 kts 126°
2026-04-23 11:41 59.13637 -104.61699 1047 ft 0 kts 124°
2026-04-23 11:42 59.13638 -104.61699 1047 ft 0 kts 123°
2026-04-23 11:45 59.13639 -104.61699 1336 ft 0 kts 121°
2026-04-23 11:45 59.13638 -104.61700 4412 ft 0 kts 122°
2026-04-23 11:46 59.13525 -104.61346 31403 ft 0 kts 118°
2026-04-23 11:47 59.12922 -104.59274 30444 ft 270 kts 137°
2026-04-23 11:47 59.11675 -104.55986 25753 ft 341 kts 142°
2026-04-23 11:47 59.10475 -104.54049 31921 ft 383 kts 156°
2026-04-23 11:47 59.08019 -104.51204 24681 ft 404 kts 157°
2026-04-23 11:48 59.06496 -104.50078 32308 ft 0 kts 180°
2026-04-23 11:48 59.03823 -104.50359 35649 ft 439 kts 189°
2026-04-23 11:48 59.00848 -104.51132 34690 ft 425 kts 193°
2026-04-23 11:48 58.97988 -104.51946 34576 ft 407 kts 194°
2026-04-23 11:49 58.95260 -104.53296 33233 ft 410 kts 212°
2026-04-23 11:49 58.93074 -104.56835 32871 ft 413 kts 227°
2026-04-23 11:49 58.91212 -104.61020 32522 ft 407 kts 227°
2026-04-23 11:49 58.89351 -104.65050 32420 ft 395 kts 227°
2026-04-23 11:50 58.87523 -104.68883 32319 ft 383 kts 224°
2026-04-23 11:50 58.85579 -104.72309 32250 ft 372 kts 218°
2026-04-23 11:50 58.83514 -104.75162 32167 ft 361 kts 212°
2026-04-23 11:51 58.79049 -104.79057 31977 ft 344 kts 200°
2026-04-23 11:51 58.76760 -104.80032 32229 ft 331 kts 193°
2026-04-23 11:51 58.74487 -104.80428 32631 ft 325 kts 187°
2026-04-23 11:51 58.72268 -104.80310 33024 ft 323 kts 182°
2026-04-23 11:52 58.70048 -104.79728 33130 ft 323 kts 177°
2026-04-23 11:52 58.65743 -104.76887 33135 ft 338 kts 161°
2026-04-23 11:52 58.63749 -104.74317 33121 ft 350 kts 150°
2026-04-23 11:53 58.61997 -104.70906 33124 ft 369 kts 139°
2026-04-23 11:53 58.60579 -104.66655 33139 ft 387 kts 128°
2026-04-23 11:53 58.59414 -104.61913 33137 ft 398 kts 124°
2026-04-23 11:54 58.57354 -104.51861 33108 ft 411 kts 121°
2026-04-23 11:54 58.55301 -104.41510 33129 ft 419 kts 122°
2026-04-23 11:55 58.53147 -104.31098 33136 ft 428 kts 122°
2026-04-23 11:55 58.50877 -104.20425 33135 ft 437 kts 122°
2026-04-23 11:56 58.48541 -104.09555 33137 ft 447 kts 122°
2026-04-23 11:56 58.46145 -103.98452 33138 ft 457 kts 122°
2026-04-23 11:57 58.43690 -103.87118 33134 ft 466 kts 122°
2026-04-23 11:57 58.41188 -103.75625 33150 ft 475 kts 122°
2026-04-23 11:58 58.38620 -103.63890 33120 ft 484 kts 122°
2026-04-23 11:58 58.36023 -103.52053 33138 ft 482 kts 122°
2026-04-23 11:59 58.33429 -103.40305 33129 ft 481 kts 122°
2026-04-23 11:59 58.30830 -103.28624 33128 ft 477 kts 122°
2026-04-23 12:00 58.28239 -103.17049 33137 ft 475 kts 122°
2026-04-23 12:00 58.25638 -103.05516 33128 ft 475 kts 122°
2026-04-23 12:01 58.23024 -102.93992 33141 ft 476 kts 122°
2026-04-23 12:01 58.20415 -102.82535 33146 ft 476 kts 122°
2026-04-23 12:02 58.17780 -102.71015 33138 ft 476 kts 122°
2026-04-23 12:02 58.15135 -102.59521 33145 ft 476 kts 123°
2026-04-23 12:03 58.12474 -102.48018 33147 ft 476 kts 123°
2026-04-23 12:03 58.09811 -102.36572 33138 ft 475 kts 123°
2026-04-23 12:04 58.07144 -102.25182 33142 ft 480 kts 123°
2026-04-23 12:04 58.04429 -102.13646 33147 ft 481 kts 123°
2026-04-23 12:05 58.01708 -102.02122 33128 ft 481 kts 123°
2026-04-23 12:05 57.98974 -101.90609 33125 ft 480 kts 123°
2026-04-23 12:06 57.96231 -101.79126 33135 ft 480 kts 123°
2026-04-23 12:06 57.92097 -101.61952 33122 ft 480 kts 122°
2026-04-23 12:07 57.89337 -101.50546 33132 ft 479 kts 123°
2026-04-23 12:07 57.86569 -101.39165 33132 ft 479 kts 123°
2026-04-23 12:08 57.83791 -101.27808 33117 ft 479 kts 123°
2026-04-23 12:08 57.81003 -101.16471 33130 ft 478 kts 123°
2026-04-23 12:09 57.78224 -101.05225 33128 ft 478 kts 123°
2026-04-23 12:09 57.75417 -100.93927 33118 ft 479 kts 123°
2026-04-23 12:10 57.72573 -100.82558 33117 ft 483 kts 123°
2026-04-23 12:10 57.69725 -100.71197 33130 ft 481 kts 123°
2026-04-23 12:11 57.66873 -100.59887 33128 ft 480 kts 123°
2026-04-23 12:11 57.64013 -100.48610 33128 ft 480 kts 124°
2026-04-23 12:12 57.61158 -100.37412 33140 ft 480 kts 124°
2026-04-23 12:12 57.58277 -100.26168 33118 ft 480 kts 124°
2026-04-23 12:13 57.55370 -100.14889 33132 ft 484 kts 124°
2026-04-23 12:13 57.52443 -100.03578 33097 ft 485 kts 124°
2026-04-23 12:14 57.49512 -99.92297 33123 ft 484 kts 124°
2026-04-23 12:14 57.46572 -99.81045 33135 ft 484 kts 124°
2026-04-23 12:15 57.43621 -99.69813 33121 ft 483 kts 124°
2026-04-23 12:15 57.40685 -99.58691 33125 ft 484 kts 124°
2026-04-23 12:16 57.37692 -99.47433 33133 ft 490 kts 124°
2026-04-23 12:16 57.34667 -99.36088 33118 ft 491 kts 124°
2026-04-23 12:17 57.31637 -99.24769 33126 ft 490 kts 124°
2026-04-23 12:17 57.28604 -99.13498 33128 ft 488 kts 124°
2026-04-23 12:18 57.25571 -99.02288 33127 ft 487 kts 124°
2026-04-23 12:18 57.22525 -98.91096 33121 ft 488 kts 124°
2026-04-23 12:19 57.19458 -98.79901 33138 ft 494 kts 124°
2026-04-23 12:19 57.16353 -98.68596 33121 ft 494 kts 124°
2026-04-23 12:20 57.13246 -98.57328 33121 ft 494 kts 124°
2026-04-23 12:20 57.10124 -98.46069 33132 ft 494 kts 124°
2026-04-23 12:21 57.06991 -98.34829 33124 ft 493 kts 124°
2026-04-23 12:21 57.03852 -98.23629 33132 ft 494 kts 124°
2026-04-23 12:22 57.00679 -98.12372 33115 ft 497 kts 124°
2026-04-23 12:22 56.97490 -98.01096 33129 ft 497 kts 124°
2026-04-23 12:23 56.94833 -97.91740 33129 ft 497 kts 124°
2026-04-23 12:23 56.91109 -97.78697 33111 ft 497 kts 124°
2026-04-23 12:24 56.87898 -97.67510 33129 ft 497 kts 125°
2026-04-23 12:24 56.84678 -97.56347 33124 ft 496 kts 124°
2026-04-23 12:25 56.81991 -97.47077 33127 ft 497 kts 124°
2026-04-23 12:25 56.78744 -97.35920 33127 ft 497 kts 124°
2026-04-23 12:26 56.75487 -97.24777 33128 ft 497 kts 125°
2026-04-23 12:26 56.72223 -97.13669 33130 ft 497 kts 125°
2026-04-23 12:27 56.68950 -97.02579 33127 ft 497 kts 125°
2026-04-23 12:27 56.65664 -96.91508 33141 ft 500 kts 125°
2026-04-23 12:28 56.62349 -96.80385 33118 ft 499 kts 125°
2026-04-23 12:28 56.59037 -96.69315 33142 ft 498 kts 125°
2026-04-23 12:29 56.55720 -96.58287 33129 ft 498 kts 126°
2026-04-23 12:29 56.52413 -96.47350 33140 ft 498 kts 126°
2026-04-23 12:30 56.49078 -96.36366 33153 ft 498 kts 126°
2026-04-23 12:30 56.45717 -96.25362 33126 ft 502 kts 126°
2026-04-23 12:31 56.42327 -96.14304 33128 ft 503 kts 126°
2026-04-23 12:31 56.38926 -96.03251 33132 ft 503 kts 126°
2026-04-23 12:32 56.35515 -95.92221 33130 ft 503 kts 126°
2026-04-23 12:32 56.32121 -95.81304 33128 ft 502 kts 126°
2026-04-23 12:33 56.28694 -95.70331 33124 ft 503 kts 126°
2026-04-23 12:33 56.25241 -95.59333 33131 ft 507 kts 126°
2026-04-23 12:34 56.21768 -95.48310 33130 ft 507 kts 126°
2026-04-23 12:34 56.18284 -95.37300 33101 ft 507 kts 127°
2026-04-23 12:35 56.14792 -95.26317 33117 ft 505 kts 127°
2026-04-23 12:35 56.11302 -95.15396 33125 ft 505 kts 127°
2026-04-23 12:36 56.07793 -95.04467 33130 ft 505 kts 127°
2026-04-23 12:36 56.04284 -94.93589 33137 ft 505 kts 127°
2026-04-23 12:37 56.00786 -94.82792 33140 ft 505 kts 127°
2026-04-23 12:37 55.97257 -94.71946 33137 ft 505 kts 127°
2026-04-23 12:38 55.93715 -94.61113 33136 ft 505 kts 127°
2026-04-23 12:38 55.90170 -94.50315 33112 ft 504 kts 127°
2026-04-23 12:39 55.86597 -94.39494 33135 ft 507 kts 127°
2026-04-23 12:39 55.83013 -94.28674 33134 ft 508 kts 128°
2026-04-23 12:40 55.79418 -94.17868 33135 ft 508 kts 128°
2026-04-23 12:40 55.75832 -94.07138 33135 ft 507 kts 128°
2026-04-23 12:41 55.72218 -93.96378 33146 ft 507 kts 128°
2026-04-23 12:41 55.68597 -93.85641 33132 ft 508 kts 128°
2026-04-23 12:42 55.64953 -93.74895 33141 ft 509 kts 128°
2026-04-23 12:42 55.61300 -93.64156 33134 ft 509 kts 128°
2026-04-23 12:43 55.57633 -93.53426 33143 ft 509 kts 128°
2026-04-23 12:43 55.53959 -93.42725 33148 ft 509 kts 129°
2026-04-23 12:44 55.50279 -93.32054 33143 ft 509 kts 129°
2026-04-23 12:44 55.46563 -93.21334 33159 ft 513 kts 129°
2026-04-23 12:45 55.42835 -93.10615 33121 ft 513 kts 129°
2026-04-23 12:45 55.39103 -92.99929 33131 ft 512 kts 129°
2026-04-23 12:46 55.35383 -92.89329 33149 ft 512 kts 129°
2026-04-23 12:46 55.31629 -92.78680 33154 ft 512 kts 129°
2026-04-23 12:47 55.27861 -92.68045 33153 ft 515 kts 129°
2026-04-23 12:47 55.24051 -92.57335 33161 ft 517 kts 129°
2026-04-23 12:48 55.20249 -92.46679 33151 ft 515 kts 129°
2026-04-23 12:48 55.16448 -92.36073 33162 ft 514 kts 129°
2026-04-23 12:49 55.12665 -92.25571 33154 ft 514 kts 129°
2026-04-23 12:49 55.08842 -92.15011 33159 ft 515 kts 129°
2026-04-23 12:50 55.04985 -92.04407 33163 ft 519 kts 129°
2026-04-23 12:50 55.01111 -91.93785 33168 ft 519 kts 129°
2026-04-23 12:51 54.97228 -91.83182 33163 ft 518 kts 128°
2026-04-23 12:51 54.93357 -91.72658 33165 ft 516 kts 129°
2026-04-23 12:52 54.89502 -91.62232 33165 ft 515 kts 128°
2026-04-23 12:52 54.85595 -91.51720 33185 ft 520 kts 128°
2026-04-23 12:53 54.81655 -91.41154 33169 ft 521 kts 128°
2026-04-23 12:53 54.77709 -91.30607 33164 ft 521 kts 129°
2026-04-23 12:54 54.73757 -91.20092 33158 ft 521 kts 129°
2026-04-23 12:54 54.69805 -91.09622 33174 ft 519 kts 129°
2026-04-23 12:55 54.65835 -90.99159 33187 ft 522 kts 128°
2026-04-23 12:55 54.61836 -90.88663 33184 ft 524 kts 128°
2026-04-23 12:56 54.57846 -90.78225 33195 ft 524 kts 129°
2026-04-23 12:56 54.53828 -90.67758 33189 ft 524 kts 129°
2026-04-23 12:57 54.49801 -90.57316 33200 ft 524 kts 129°
2026-04-23 12:57 54.45767 -90.46903 33197 ft 524 kts 129°
2026-04-23 12:58 54.41707 -90.36469 33209 ft 526 kts 129°
2026-04-23 12:58 54.37626 -90.26015 33207 ft 526 kts 129°
2026-04-23 12:59 54.33545 -90.15606 33214 ft 526 kts 129°
2026-04-23 12:59 54.29481 -90.05285 33214 ft 526 kts 129°
2026-04-23 13:00 54.25384 -89.94926 33243 ft 527 kts 129°
2026-04-23 13:00 54.21257 -89.84538 33216 ft 528 kts 129°
2026-04-23 13:01 54.17131 -89.74185 33220 ft 526 kts 129°
2026-04-23 13:01 54.12999 -89.63865 33213 ft 526 kts 129°
2026-04-23 13:02 54.08857 -89.53563 33225 ft 526 kts 129°
2026-04-23 13:02 54.04737 -89.43360 33225 ft 526 kts 129°
2026-04-23 13:03 54.00580 -89.33106 33240 ft 526 kts 129°
2026-04-23 13:03 53.96424 -89.22893 33236 ft 524 kts 129°
2026-04-23 13:04 53.92277 -89.12742 33240 ft 523 kts 129°
2026-04-23 13:04 53.88121 -89.02617 33241 ft 523 kts 129°
2026-04-23 13:05 53.83956 -88.92510 33249 ft 523 kts 129°
2026-04-23 13:05 53.79789 -88.82443 33254 ft 527 kts 129°
2026-04-23 13:06 53.73457 -88.67208 33248 ft 528 kts 129°
2026-04-23 13:07 53.69237 -88.57104 33251 ft 525 kts 129°
2026-04-23 13:07 53.65022 -88.47056 33268 ft 524 kts 129°
2026-04-23 13:08 53.60789 -88.37013 33267 ft 527 kts 129°
2026-04-23 13:08 53.56527 -88.26938 33280 ft 529 kts 129°
2026-04-23 13:09 53.52251 -88.16864 33271 ft 529 kts 129°
2026-04-23 13:09 53.47965 -88.06808 33284 ft 529 kts 129°
2026-04-23 13:10 53.43678 -87.96791 33282 ft 529 kts 129°
2026-04-23 13:10 53.39374 -87.86780 33290 ft 531 kts 129°
2026-04-23 13:11 53.35029 -87.76710 33287 ft 534 kts 129°
2026-04-23 13:11 53.30683 -87.66671 33286 ft 533 kts 129°
2026-04-23 13:12 53.26317 -87.56628 33286 ft 533 kts 129°
2026-04-23 13:12 53.21969 -87.46669 33273 ft 533 kts 129°
2026-04-23 13:13 53.17596 -87.36695 33290 ft 534 kts 129°
2026-04-23 13:13 53.13935 -87.28374 33302 ft 535 kts 129°
2026-04-23 13:14 53.09527 -87.18389 33292 ft 535 kts 129°
2026-04-23 13:14 53.05110 -87.08421 33302 ft 535 kts 129°
2026-04-23 13:15 53.00682 -86.98468 33298 ft 535 kts 129°
2026-04-23 13:15 52.96236 -86.88521 33285 ft 538 kts 129°
2026-04-23 13:16 52.91770 -86.78562 33300 ft 537 kts 129°
2026-04-23 13:16 52.87339 -86.68716 33301 ft 537 kts 129°
2026-04-23 13:17 52.82864 -86.58815 33301 ft 537 kts 129°
2026-04-23 13:17 52.78386 -86.48949 33301 ft 536 kts 130°
2026-04-23 13:18 52.73887 -86.39073 33300 ft 541 kts 129°
2026-04-23 13:18 52.69349 -86.29150 33289 ft 541 kts 130°
2026-04-23 13:19 52.64814 -86.19271 33303 ft 539 kts 130°
2026-04-23 13:19 52.60284 -86.09440 33297 ft 539 kts 130°
2026-04-23 13:20 52.55742 -85.99625 33317 ft 539 kts 129°
2026-04-23 13:20 52.51181 -85.89806 33301 ft 543 kts 129°
2026-04-23 13:21 52.46589 -85.79957 33301 ft 544 kts 130°
2026-04-23 13:21 52.41988 -85.70126 33300 ft 543 kts 130°
2026-04-23 13:22 52.37386 -85.60331 33300 ft 542 kts 130°
2026-04-23 13:22 52.32779 -85.50564 33305 ft 543 kts 130°
2026-04-23 13:23 52.28140 -85.40769 33306 ft 546 kts 130°
2026-04-23 13:23 52.23511 -85.31028 33306 ft 546 kts 130°
2026-04-23 13:24 52.18844 -85.21245 33315 ft 546 kts 130°
2026-04-23 13:24 52.14175 -85.11495 33309 ft 544 kts 130°
2026-04-23 13:25 52.09508 -85.01789 33324 ft 546 kts 130°
2026-04-23 13:25 52.04801 -84.92039 33319 ft 549 kts 130°
2026-04-23 13:26 52.00077 -84.82287 33319 ft 549 kts 130°
2026-04-23 13:26 51.95344 -84.72552 33316 ft 549 kts 130°
2026-04-23 13:27 51.90640 -84.62915 33317 ft 548 kts 130°
2026-04-23 13:27 51.85906 -84.53253 33319 ft 547 kts 130°
2026-04-23 13:28 51.81172 -84.43629 33320 ft 547 kts 130°
2026-04-23 13:28 51.76424 -84.34012 33319 ft 547 kts 130°
2026-04-23 13:29 51.71672 -84.24422 33317 ft 547 kts 130°
2026-04-23 13:29 51.66916 -84.14862 33325 ft 548 kts 130°
2026-04-23 13:30 51.62124 -84.05266 33321 ft 550 kts 130°
2026-04-23 13:30 51.57326 -83.95690 33322 ft 549 kts 130°
2026-04-23 13:31 51.52553 -83.86201 33319 ft 549 kts 130°
2026-04-23 13:31 51.47745 -83.76677 33319 ft 549 kts 130°
2026-04-23 13:32 51.42917 -83.67152 33318 ft 552 kts 130°
2026-04-23 13:32 51.38052 -83.57588 33313 ft 553 kts 130°
2026-04-23 13:33 51.33227 -83.48113 33316 ft 550 kts 129°
2026-04-23 13:33 51.28418 -83.38677 33317 ft 550 kts 130°
2026-04-23 13:34 51.23545 -83.29246 33326 ft 553 kts 130°
2026-04-23 13:34 51.18596 -83.19689 33316 ft 563 kts 130°
2026-04-23 13:35 51.13563 -83.09980 33314 ft 573 kts 130°
2026-04-23 13:35 51.08468 -83.00184 33314 ft 573 kts 130°
2026-04-23 13:36 51.03394 -82.90459 33316 ft 570 kts 130°
2026-04-23 13:36 50.98334 -82.80805 33319 ft 574 kts 130°
2026-04-23 13:37 50.93205 -82.71055 33317 ft 576 kts 130°
2026-04-23 13:37 50.88062 -82.61314 33320 ft 576 kts 130°
2026-04-23 13:38 50.82923 -82.51617 33321 ft 576 kts 130°
2026-04-23 13:38 50.77758 -82.41908 33322 ft 578 kts 130°
2026-04-23 13:39 50.72567 -82.32188 33318 ft 580 kts 130°
2026-04-23 13:39 50.67350 -82.22457 33315 ft 580 kts 130°
2026-04-23 13:40 50.62163 -82.12819 33321 ft 580 kts 130°
2026-04-23 13:40 50.56938 -82.03148 33328 ft 580 kts 130°
2026-04-23 13:41 50.51692 -81.93471 33316 ft 582 kts 130°
2026-04-23 13:41 50.46432 -81.83803 33306 ft 582 kts 130°
2026-04-23 13:42 50.41161 -81.74152 33308 ft 582 kts 130°
2026-04-23 13:42 50.35882 -81.64525 33332 ft 582 kts 130°
2026-04-23 13:43 50.30582 -81.54894 33316 ft 584 kts 130°
2026-04-23 13:43 50.25271 -81.45278 33316 ft 584 kts 130°
2026-04-23 13:44 50.19945 -81.35672 33316 ft 584 kts 130°
2026-04-23 13:44 50.14620 -81.26102 33355 ft 584 kts 130°
2026-04-23 13:45 50.10171 -81.18136 33324 ft 587 kts 129°
2026-04-23 13:45 50.03922 -81.06986 33315 ft 587 kts 130°
2026-04-23 13:46 49.98234 -80.97923 33319 ft 586 kts 140°
2026-04-23 13:46 49.93033 -80.91171 33311 ft 586 kts 142°
2026-04-23 13:47 49.85582 -80.81906 33309 ft 589 kts 142°
2026-04-23 13:47 49.79149 -80.73971 33306 ft 590 kts 142°
2026-04-23 13:48 49.72741 -80.66054 33306 ft 589 kts 142°
2026-04-23 13:48 49.66383 -80.58203 33297 ft 588 kts 142°
2026-04-23 13:49 49.59978 -80.50319 33301 ft 589 kts 142°
2026-04-23 13:49 49.54652 -80.43785 33289 ft 588 kts 142°
2026-04-23 13:50 49.47175 -80.34646 33290 ft 587 kts 142°
2026-04-23 13:50 49.40775 -80.26853 33286 ft 587 kts 142°
2026-04-23 13:51 49.34375 -80.19087 33280 ft 587 kts 142°
2026-04-23 13:51 49.27949 -80.11319 33282 ft 589 kts 142°
2026-04-23 13:52 49.21547 -80.03601 33275 ft 590 kts 142°
2026-04-23 13:52 49.15090 -79.95843 33271 ft 590 kts 142°
2026-04-23 13:53 49.08633 -79.88113 33276 ft 590 kts 142°
2026-04-23 13:53 49.02173 -79.80406 33284 ft 589 kts 142°
2026-04-23 13:54 48.95690 -79.72699 33266 ft 593 kts 142°
2026-04-23 13:54 48.89171 -79.64972 33265 ft 593 kts 142°
2026-04-23 13:55 48.83757 -79.58575 33256 ft 593 kts 142°
2026-04-23 13:55 48.76146 -79.49616 33251 ft 591 kts 142°
2026-04-23 13:56 48.69626 -79.41969 33251 ft 594 kts 142°
2026-04-23 13:56 48.63078 -79.34314 33247 ft 595 kts 142°
2026-04-23 13:57 48.57624 -79.27957 33210 ft 595 kts 142°
2026-04-23 13:57 48.49954 -79.19047 33244 ft 594 kts 142°
2026-04-23 13:58 48.43397 -79.11461 33240 ft 595 kts 142°
2026-04-23 13:58 48.36887 -79.03952 33224 ft 597 kts 142°
2026-04-23 13:59 48.30338 -78.96425 33215 ft 597 kts 142°
2026-04-23 13:59 48.23733 -78.88855 33212 ft 597 kts 142°
2026-04-23 14:00 48.18236 -78.82574 33264 ft 597 kts 142°
2026-04-23 14:00 48.10490 -78.73756 33237 ft 598 kts 142°
2026-04-23 14:01 48.03867 -78.66241 33234 ft 598 kts 142°
2026-04-23 14:01 47.97281 -78.58793 33227 ft 597 kts 142°
2026-04-23 14:02 47.90650 -78.51319 33228 ft 597 kts 142°
2026-04-23 14:02 47.84012 -78.43865 33209 ft 598 kts 142°
2026-04-23 14:03 47.77363 -78.36420 33217 ft 597 kts 142°
2026-04-23 14:03 47.71837 -78.30251 33217 ft 597 kts 142°
2026-04-23 14:04 47.65191 -78.22854 33211 ft 597 kts 142°
2026-04-23 14:04 47.58534 -78.15471 33202 ft 598 kts 142°
2026-04-23 14:05 47.51870 -78.08102 33210 ft 598 kts 142°
2026-04-23 14:05 47.45212 -78.00763 33207 ft 598 kts 142°
2026-04-23 14:06 47.38533 -77.93426 33204 ft 598 kts 142°
2026-04-23 14:06 47.31858 -77.86117 33206 ft 598 kts 142°
2026-04-23 14:07 47.25161 -77.78807 33199 ft 599 kts 142°
2026-04-23 14:07 47.15103 -77.67872 33195 ft 599 kts 142°
2026-04-23 14:08 47.08403 -77.60619 33194 ft 598 kts 142°
2026-04-23 14:08 47.01701 -77.53386 33185 ft 599 kts 142°
2026-04-23 14:09 46.95024 -77.46201 33183 ft 600 kts 142°
2026-04-23 14:09 46.88293 -77.38990 33163 ft 599 kts 142°
2026-04-23 14:10 46.81570 -77.31800 33179 ft 598 kts 142°
2026-04-23 14:10 46.74848 -77.24634 33179 ft 598 kts 142°
2026-04-23 14:11 46.68111 -77.17475 33164 ft 598 kts 142°
2026-04-23 14:11 46.61380 -77.10340 33165 ft 598 kts 142°
2026-04-23 14:12 46.54659 -77.03242 33165 ft 597 kts 142°
2026-04-23 14:12 46.47920 -76.96165 33160 ft 598 kts 142°
2026-04-23 14:13 46.41119 -76.89121 33139 ft 601 kts 143°
2026-04-23 14:13 46.34413 -76.82080 33156 ft 598 kts 142°
2026-04-23 14:14 46.27682 -76.75007 33145 ft 597 kts 142°
2026-04-23 14:14 46.20942 -76.67981 33148 ft 599 kts 142°
2026-04-23 14:15 46.14165 -76.60969 33135 ft 599 kts 142°
2026-04-23 14:15 46.07392 -76.53968 33129 ft 599 kts 142°
2026-04-23 14:16 46.00615 -76.46992 33139 ft 599 kts 142°
2026-04-23 14:16 45.93830 -76.40028 33137 ft 600 kts 143°
2026-04-23 14:17 45.87020 -76.33059 33131 ft 601 kts 143°
2026-04-23 14:17 45.80199 -76.26101 33127 ft 601 kts 143°
2026-04-23 14:18 45.73424 -76.19211 33124 ft 601 kts 143°
2026-04-23 14:18 45.66597 -76.12294 33128 ft 601 kts 143°
2026-04-23 14:19 45.59757 -76.05377 33114 ft 602 kts 143°
2026-04-23 14:19 45.52916 -75.98483 33115 ft 602 kts 143°
2026-04-23 14:20 45.46072 -75.91594 33108 ft 601 kts 143°
2026-04-23 14:20 45.39307 -75.84627 33112 ft 600 kts 141°
2026-04-23 14:21 45.32640 -75.77444 33109 ft 602 kts 141°
2026-04-23 14:21 45.25943 -75.70302 33081 ft 602 kts 141°
2026-04-23 14:22 45.19248 -75.63210 33110 ft 600 kts 141°
2026-04-23 14:22 45.12546 -75.56135 33107 ft 602 kts 141°
2026-04-23 14:23 45.05811 -75.49049 33109 ft 603 kts 141°
2026-04-23 14:23 44.99077 -75.41986 33105 ft 602 kts 141°
2026-04-23 14:24 44.92447 -75.35052 33146 ft 601 kts 141°
2026-04-23 14:24 44.92332 -75.34932 33143 ft 601 kts 141°
2026-04-23 14:25 44.87843 -75.30249 33103 ft 603 kts 141°
2026-04-23 14:25 44.81087 -75.23218 33061 ft 604 kts 141°
2026-04-23 14:26 44.74332 -75.16209 33099 ft 602 kts 141°
2026-04-23 14:26 44.67572 -75.09217 33137 ft 602 kts 142°
2026-04-23 14:27 44.60804 -75.02236 33086 ft 605 kts 142°
2026-04-23 14:27 44.54056 -74.95298 33098 ft 604 kts 142°
2026-04-23 14:28 44.47290 -74.88361 33089 ft 602 kts 142°
2026-04-23 14:28 44.40526 -74.81445 33083 ft 602 kts 142°
2026-04-23 14:29 44.33752 -74.74539 33039 ft 603 kts 142°
2026-04-23 14:29 44.26980 -74.67658 33050 ft 601 kts 142°
2026-04-23 14:30 44.20209 -74.60796 33052 ft 601 kts 142°
2026-04-23 14:30 44.13428 -74.53946 32996 ft 601 kts 142°
2026-04-23 14:31 44.06657 -74.47122 33051 ft 599 kts 142°
2026-04-23 14:31 43.99924 -74.40351 33043 ft 597 kts 142°
2026-04-23 14:32 43.93176 -74.33594 33071 ft 598 kts 142°
2026-04-23 14:32 43.86473 -74.26894 33036 ft 596 kts 142°
2026-04-23 14:33 43.79748 -74.20198 33037 ft 596 kts 142°
2026-04-23 14:33 43.73004 -74.13501 33037 ft 597 kts 142°
2026-04-23 14:34 43.66250 -74.06824 33032 ft 597 kts 142°
2026-04-23 14:34 43.59503 -74.00154 33095 ft 597 kts 143°
2026-04-23 14:35 43.52732 -73.93470 33043 ft 599 kts 142°
2026-04-23 14:35 43.45951 -73.86795 33009 ft 599 kts 143°
2026-04-23 14:36 43.39150 -73.80161 33037 ft 598 kts 143°
2026-04-23 14:36 43.32365 -73.73541 33035 ft 598 kts 143°
2026-04-23 14:37 43.25583 -73.67048 33033 ft 599 kts 148°
2026-04-23 14:37 43.21858 -73.64530 33059 ft 597 kts 162°
2026-04-23 14:37 43.17865 -73.63138 33039 ft 588 kts 177°
2026-04-23 14:38 43.13839 -73.62938 33037 ft 574 kts 192°
2026-04-23 14:38 43.09958 -73.63850 33040 ft 558 kts 206°
2026-04-23 14:38 43.06399 -73.65736 33013 ft 539 kts 218°
2026-04-23 14:38 43.03052 -73.68046 33022 ft 545 kts 214°
2026-04-23 14:39 42.95767 -73.71486 33044 ft 557 kts 206°
2026-04-23 14:39 42.88357 -73.74600 33036 ft 558 kts 206°
2026-04-23 14:40 42.80930 -73.77717 33036 ft 557 kts 206°
2026-04-23 14:40 42.73523 -73.80827 33035 ft 556 kts 206°
2026-04-23 14:41 42.66176 -73.84124 33023 ft 555 kts 207°
2026-04-23 14:41 42.58839 -73.87437 33038 ft 555 kts 207°
2026-04-23 14:42 42.51556 -73.90700 33038 ft 555 kts 207°
2026-04-23 14:42 42.44218 -73.93975 33044 ft 555 kts 206°
2026-04-23 14:43 42.36889 -73.97235 32405 ft 553 kts 206°
2026-04-23 14:43 42.33227 -73.98862 31652 ft 554 kts 206°
2026-04-23 14:43 42.29572 -74.00482 30681 ft 550 kts 206°
2026-04-23 14:44 42.25957 -74.02079 29185 ft 542 kts 206°
2026-04-23 14:44 42.22446 -74.03626 27841 ft 528 kts 206°
2026-04-23 14:44 42.19004 -74.05144 26556 ft 514 kts 206°
2026-04-23 14:44 42.16763 -74.06130 25708 ft 505 kts 206°
2026-04-23 14:45 42.13465 -74.07584 24799 ft 496 kts 206°
2026-04-23 14:45 42.09504 -74.09334 24200 ft 491 kts 206°
2026-04-23 14:45 42.06278 -74.10758 24048 ft 486 kts 206°
2026-04-23 14:45 42.03056 -74.12189 24034 ft 490 kts 206°
2026-04-23 14:46 41.99819 -74.13611 24029 ft 487 kts 206°
2026-04-23 14:46 41.96607 -74.15015 24025 ft 485 kts 206°
2026-04-23 14:46 41.93409 -74.16415 24025 ft 484 kts 206°
2026-04-23 14:46 41.90199 -74.17819 24005 ft 484 kts 205°
2026-04-23 14:47 41.86996 -74.19218 24022 ft 483 kts 205°
2026-04-23 14:47 41.83803 -74.20614 24022 ft 483 kts 205°
2026-04-23 14:47 41.80605 -74.22011 24035 ft 483 kts 205°
2026-04-23 14:47 41.77405 -74.23405 24034 ft 483 kts 205°
2026-04-23 14:48 41.74206 -74.24798 24033 ft 483 kts 205°
2026-04-23 14:48 41.71053 -74.26169 24034 ft 483 kts 205°
2026-04-23 14:48 41.67852 -74.27560 24029 ft 483 kts 205°
2026-04-23 14:48 41.64654 -74.28954 24036 ft 483 kts 206°
2026-04-23 14:49 41.61460 -74.30340 24035 ft 483 kts 205°
2026-04-23 14:49 41.58256 -74.31725 24036 ft 483 kts 205°
2026-04-23 14:49 41.55055 -74.33108 24036 ft 483 kts 205°
2026-04-23 14:49 41.51871 -74.34489 24000 ft 481 kts 205°
2026-04-23 14:50 41.48703 -74.35852 23551 ft 476 kts 205°
2026-04-23 14:50 41.45561 -74.37203 22931 ft 474 kts 205°
2026-04-23 14:50 41.43491 -74.38094 22562 ft 471 kts 205°
2026-04-23 14:50 41.40427 -74.39409 21861 ft 462 kts 205°
2026-04-23 14:51 41.37396 -74.40705 20566 ft 451 kts 205°
2026-04-23 14:51 41.34435 -74.41977 19201 ft 443 kts 205°
2026-04-23 14:51 41.31529 -74.43225 17901 ft 433 kts 205°
2026-04-23 14:51 41.28691 -74.44442 16542 ft 423 kts 205°
2026-04-23 14:52 41.25925 -74.45632 15221 ft 413 kts 204°
2026-04-23 14:52 41.23221 -74.46789 13952 ft 405 kts 204°
2026-04-23 14:52 41.20566 -74.47925 12556 ft 397 kts 204°
2026-04-23 14:52 41.17948 -74.49046 11137 ft 393 kts 204°
2026-04-23 14:53 41.15368 -74.50151 9750 ft 388 kts 204°
2026-04-23 14:53 41.12806 -74.51247 8342 ft 382 kts 202°
2026-04-23 14:53 41.10345 -74.52294 7552 ft 373 kts 202°
2026-04-23 14:53 41.07862 -74.53339 7157 ft 375 kts 200°
2026-04-23 14:54 41.05296 -74.53966 7055 ft 377 kts 189°
2026-04-23 14:54 41.02701 -74.54236 7046 ft 365 kts 187°
2026-04-23 14:54 41.00298 -74.54439 7045 ft 327 kts 187°
2026-04-23 14:54 40.98122 -74.54624 7028 ft 305 kts 188°
2026-04-23 14:55 40.96011 -74.54819 7033 ft 303 kts 188°
2026-04-23 14:55 40.93920 -74.55015 7031 ft 304 kts 188°
2026-04-23 14:55 40.91796 -74.55215 7034 ft 304 kts 188°
2026-04-23 14:55 40.89686 -74.55411 7038 ft 303 kts 188°
2026-04-23 14:56 40.87593 -74.55605 7037 ft 301 kts 188°
2026-04-23 14:56 40.85505 -74.55793 7034 ft 301 kts 188°
2026-04-23 14:56 40.83410 -74.55966 7032 ft 301 kts 186°
2026-04-23 14:56 40.81312 -74.56002 7037 ft 302 kts 185°
2026-04-23 14:57 40.79240 -74.56021 7031 ft 303 kts 181°
2026-04-23 14:57 40.77130 -74.55896 7021 ft 303 kts 181°
2026-04-23 14:57 40.75022 -74.55765 7019 ft 303 kts 181°
2026-04-23 14:57 40.72917 -74.55624 7003 ft 303 kts 181°
2026-04-23 14:58 40.70810 -74.55473 7019 ft 302 kts 181°
2026-04-23 14:58 40.68707 -74.55320 6835 ft 302 kts 180°
2026-04-23 14:58 40.66614 -74.55165 6568 ft 301 kts 180°
2026-04-23 14:58 40.64541 -74.54801 6269 ft 301 kts 171°
2026-04-23 14:59 40.62501 -74.54228 5986 ft 299 kts 170°
2026-04-23 14:59 40.60480 -74.53633 5698 ft 297 kts 170°
2026-04-23 14:59 40.58472 -74.53045 5420 ft 295 kts 170°
2026-04-23 14:59 40.56480 -74.52463 5120 ft 292 kts 170°
2026-04-23 15:00 40.54505 -74.51888 5019 ft 290 kts 170°
2026-04-23 15:00 40.52554 -74.51316 5018 ft 291 kts 169°
2026-04-23 15:00 40.50656 -74.50361 4872 ft 294 kts 151°
2026-04-23 15:00 40.49160 -74.48581 4600 ft 284 kts 122°
2026-04-23 15:01 40.48509 -74.46300 4238 ft 260 kts 91°
2026-04-23 15:01 40.48696 -74.44046 3651 ft 241 kts 72°
2026-04-23 15:01 40.49105 -74.41947 3035 ft 233 kts 71°
2026-04-23 15:01 40.49503 -74.39940 2816 ft 222 kts 71°
2026-04-23 15:02 40.49875 -74.37992 2969 ft 219 kts 72°
2026-04-23 15:02 40.50237 -74.36048 3031 ft 218 kts 72°
2026-04-23 15:02 40.50597 -74.34105 3037 ft 218 kts 72°
2026-04-23 15:02 40.51061 -74.32220 3033 ft 213 kts 64°
2026-04-23 15:03 40.51681 -74.30537 3027 ft 195 kts 55°
2026-04-23 15:03 40.52420 -74.29086 3032 ft 188 kts 48°
2026-04-23 15:03 40.53272 -74.27807 3030 ft 184 kts 40°
2026-04-23 15:03 40.54175 -74.26722 3034 ft 172 kts 34°
2026-04-23 15:04 40.55152 -74.25893 2974 ft 166 kts 24°
2026-04-23 15:04 40.56176 -74.25203 2776 ft 165 kts 22°
2026-04-23 15:04 40.57201 -74.24515 2519 ft 165 kts 23°
2026-04-23 15:04 40.58233 -74.23859 2280 ft 164 kts 22°
2026-04-23 15:05 40.59266 -74.23207 2061 ft 164 kts 23°
2026-04-23 15:05 40.60291 -74.22555 1816 ft 164 kts 23°
2026-04-23 15:05 40.61306 -74.21908 1597 ft 164 kts 23°
2026-04-23 15:05 40.62334 -74.21253 1358 ft 164 kts 24°
2026-04-23 15:06 40.63330 -74.20620 1119 ft 153 kts 22°
2026-04-23 15:06 40.64261 -74.20028 932 ft 147 kts 22°
2026-04-23 15:06 40.65186 -74.19439 718 ft 147 kts 24°
2026-04-23 15:06 40.66109 -74.18852 519 ft 146 kts 23°
2026-04-23 15:07 40.67010 -74.18279 315 ft 143 kts 23°
2026-04-23 15:07 40.67907 -74.17709 123 ft 142 kts 23°
2026-04-23 15:07 40.68746 -74.17175 27 ft 130 kts 26°
2026-04-23 15:07 40.69254 -74.16878 28 ft 23 kts 11°
2026-04-23 15:08 40.69289 -74.16872 27 ft 7 kts
2026-04-23 15:08 40.69374 -74.16866 27 ft 18 kts
2026-04-23 15:08 40.69511 -74.16933 30 ft 25 kts 304°
2026-04-23 15:09 40.69513 -74.17063 26 ft 6 kts 212°
2026-04-23 15:09 40.69421 -74.17069 29 ft 21 kts 180°
2026-04-23 15:09 40.69236 -74.17145 28 ft 32 kts 204°
2026-04-23 15:09 40.69196 -74.17178 30 ft 1 kts 232°
2026-04-23 15:10 40.69192 -74.17187 28 ft 3 kts 234°
2026-04-23 15:10 40.69182 -74.17231 30 ft 5 kts 261°
2026-04-23 15:10 40.69184 -74.17282 30 ft 6 kts 273°
2026-04-23 15:10 40.69187 -74.17331 29 ft 0 kts 275°